Observation data for Big Lake on 12/09/2018      Previous  Date       Current Mesonet Observations  Soil Data  Daily Summary Page  Observations in Plain Language
KBI1 090600Z 34006KT 04/01 A3031 RMK A01 T00400014  RH  083%=      5-min Rain = 0
KBI1 090601Z 34006KT 04/01 A3031 RMK A01 T00400014  RH  083%=      5-min Rain = 0
KBI1 090602Z 34006KT 04/01 A3031 RMK A01 T00400013  RH  083%=      5-min Rain = 0
KBI1 090603Z 34005KT 04/01 A3031 RMK A01 T00400014  RH  083%=      5-min Rain = 0
KBI1 090604Z 34007KT 04/01 A3031 RMK A01 T00400014  RH  083%=      5-min Rain = 0
KBI1 090605Z 34006KT 04/01 A3031 RMK A01 T00400014  RH  083%=      5-min Rain = 0
KBI1 090606Z 34005KT 04/01 A3031 RMK A01 T00400014  RH  083%=      5-min Rain = 0
KBI1 090607Z 35004KT 04/01 A3031 RMK A01 T00400014  RH  083%=      5-min Rain = 0
KBI1 090608Z 35004KT 04/01 A3031 RMK A01 T00400014  RH  083%=      5-min Rain = 0
KBI1 090609Z 35005KT 04/01 A3031 RMK A01 T00400014  RH  083%=      5-min Rain = 0
KBI1 090610Z 35005KT 04/01 A3031 RMK A01 T00400014  RH  083%=      5-min Rain = 0
KBI1 090611Z 00005KT 04/01 A3031 RMK A01 T00400014  RH  083%=      5-min Rain = 0
KBI1 090612Z 35006KT 04/01 A3031 RMK A01 T00400014  RH  083%=      5-min Rain = 0
KBI1 090613Z 34006KT 04/01 A3031 RMK A01 T00400014  RH  083%=      5-min Rain = 0
KBI1 090614Z 34007KT 04/01 A3031 RMK A01 T00390014  RH  083%=      5-min Rain = 0
KBI1 090615Z 34006KT 04/01 A3031 RMK A01 T00390013  RH  083%=      5-min Rain = 0
KBI1 090616Z 34006KT 04/01 A3031 RMK A01 T00390014  RH  083%=      5-min Rain = 0
KBI1 090617Z 34006KT 04/01 A3031 RMK A01 T00390014  RH  083%=      5-min Rain = 0
KBI1 090618Z 34006KT 04/01 A3031 RMK A01 T00390014  RH  084%=      5-min Rain = 0
KBI1 090619Z 34005KT 04/01 A3031 RMK A01 T00390014  RH  084%=      5-min Rain = 0
KBI1 090620Z 35005KT 04/01 A3031 RMK A01 T00390014  RH  084%=      5-min Rain = 0
KBI1 090621Z 35007KT 04/01 A3031 RMK A01 T00390014  RH  084%=      5-min Rain = 0
KBI1 090622Z 34006KT 04/01 A3031 RMK A01 T00390014  RH  083%=      5-min Rain = 0
KBI1 090623Z 35008KT 04/01 A3031 RMK A01 T00390014  RH  083%=      5-min Rain = 0
KBI1 090624Z 34007KT 04/01 A3031 RMK A01 T00400014  RH  083%=      5-min Rain = 0
KBI1 090625Z 33005KT 04/01 A3031 RMK A01 T00390013  RH  083%=      5-min Rain = 0
KBI1 090626Z 33006KT 04/01 A3031 RMK A01 T00390014  RH  083%=      5-min Rain = 0
KBI1 090627Z 33007KT 04/01 A3031 RMK A01 T00390014  RH  084%=      5-min Rain = 0
KBI1 090628Z 33007KT 04/01 A3031 RMK A01 T00390014  RH  084%=      5-min Rain = 0
KBI1 090629Z 33006KT 04/01 A3031 RMK A01 T00390014  RH  084%=      5-min Rain = 0
KBI1 090630Z 33006KT 04/01 A3031 RMK A01 T00390014  RH  083%=      5-min Rain = 0
KBI1 090631Z 33006KT 04/01 A3031 RMK A01 T00390014  RH  083%=      5-min Rain = 0
KBI1 090632Z 33005KT 04/01 A3031 RMK A01 T00390014  RH  083%=      5-min Rain = 0
KBI1 090633Z 34005KT 04/01 A3031 RMK A01 T00390014  RH  083%=      5-min Rain = 0
KBI1 090634Z 34006KT 04/01 A3031 RMK A01 T00390014  RH  084%=      5-min Rain = 0
KBI1 090635Z 35004KT 04/01 A303 RMK A01 T00390014  RH  084%=      5-min Rain = 0
KBI1 090636Z 35005KT 04/02 A303 RMK A01 T00390015  RH  084%=      5-min Rain = 0
KBI1 090637Z 35005KT 04/02 A303 RMK A01 T00390015  RH  084%=      5-min Rain = 0
KBI1 090638Z 35005KT 04/02 A303 RMK A01 T00390015  RH  084%=      5-min Rain = 0
KBI1 090639Z 35005KT 04/02 A303 RMK A01 T00390015  RH  084%=      5-min Rain = 0
KBI1 090640Z 35006KT 04/01 A303 RMK A01 T00380014  RH  084%=      5-min Rain = 0
KBI1 090641Z 36006KT 04/01 A303 RMK A01 T00380014  RH  084%=      5-min Rain = 0
KBI1 090642Z 35007KT 04/01 A303 RMK A01 T00380013  RH  084%=      5-min Rain = 0
KBI1 090643Z 34007KT 04/01 A303 RMK A01 T00380013  RH  084%=      5-min Rain = 0
KBI1 090644Z 33006KT 04/01 A303 RMK A01 T00380013  RH  084%=      5-min Rain = 0
KBI1 090645Z 33005KT 04/01 A303 RMK A01 T00380014  RH  084%=      5-min Rain = 0
KBI1 090646Z 32005KT 04/01 A303 RMK A01 T00380014  RH  084%=      5-min Rain = 0
KBI1 090647Z 33005KT 04/01 A303 RMK A01 T00380013  RH  084%=      5-min Rain = 0
KBI1 090648Z 33005KT 04/01 A303 RMK A01 T00380014  RH  084%=      5-min Rain = 0
KBI1 090649Z 34005KT 04/01 A303 RMK A01 T00380014  RH  084%=      5-min Rain = 0
KBI1 090650Z 34005KT 04/01 A303 RMK A01 T00380014  RH  085%=      5-min Rain = 0
KBI1 090651Z 34005KT 04/02 A303 RMK A01 T00380015  RH  085%=      5-min Rain = 0
KBI1 090652Z 34004KT 04/02 A303 RMK A01 T00380015  RH  085%=      5-min Rain = 0
KBI1 090653Z 35006KT 04/02 A303 RMK A01 T00380015  RH  085%=      5-min Rain = 0
KBI1 090654Z 35007KT 04/02 A303 RMK A01 T00380015  RH  085%=      5-min Rain = 0
KBI1 090655Z 34006KT 04/01 A303 RMK A01 T00380014  RH  084%=      5-min Rain = 0
KBI1 090656Z 35005KT 04/01 A303 RMK A01 T00380013  RH  084%=      5-min Rain = 0
KBI1 090657Z 32005KT 04/01 A303 RMK A01 T00380013  RH  084%=      5-min Rain = 0
KBI1 090658Z 33004KT 04/01 A303 RMK A01 T00380013  RH  084%=      5-min Rain = 0
KBI1 090659Z 33004KT 04/01 A303 RMK A01 T00380012  RH  083%=      5-min Rain = 0
KBI1 090700Z 33004KT 04/01 A303 RMK A01 T00370010  RH  083%=      5-min Rain = 0
KBI1 090701Z 34004KT 04/01 A303 RMK A01 T00370010  RH  083%=      5-min Rain = 0
KBI1 090702Z 35004KT 04/01 A303 RMK A01 T00370010  RH  083%=      5-min Rain = 0
KBI1 090703Z 36005KT 04/01 A303 RMK A01 T00360011  RH  083%=      5-min Rain = 0
KBI1 090704Z 35004KT 04/01 A303 RMK A01 T00360011  RH  084%=      5-min Rain = 0
KBI1 090705Z 36005KT 04/01 A303 RMK A01 T00350011  RH  084%=      5-min Rain = 0
KBI1 090706Z 36004KT 04/01 A303 RMK A01 T00350011  RH  084%=      5-min Rain = 0
KBI1 090707Z 35004KT 03/01 A303 RMK A01 T00340011  RH  084%=      5-min Rain = 0
KBI1 090708Z 35005KT 03/01 A303 RMK A01 T00340010  RH  085%=      5-min Rain = 0
KBI1 090709Z 35004KT 03/01 A303 RMK A01 T00330010  RH  085%=      5-min Rain = 0
KBI1 090710Z 35004KT 03/01 A303 RMK A01 T00330010  RH  085%=      5-min Rain = 0
KBI1 090711Z 34003KT 03/01 A303 RMK A01 T00330010  RH  085%=      5-min Rain = 0
KBI1 090712Z 35003KT 03/01 A303 RMK A01 T00330010  RH  085%=      5-min Rain = 0
KBI1 090713Z 34003KT 03/01 A303 RMK A01 T00320010  RH  085%=      5-min Rain = 0
KBI1 090714Z 34004KT 03/01 A303 RMK A01 T00320010  RH  086%=      5-min Rain = 0
KBI1 090715Z 34003KT 03/01 A303 RMK A01 T00310010  RH  086%=      5-min Rain = 0
KBI1 090716Z 34003KT 03/01 A303 RMK A01 T00310009  RH  086%=      5-min Rain = 0
KBI1 090717Z 35003KT 03/01 A303 RMK A01 T00300009  RH  086%=      5-min Rain = 0
KBI1 090718Z 35004KT 03/01 A303 RMK A01 T00300009  RH  086%=      5-min Rain = 0
KBI1 090719Z 35004KT 03/01 A303 RMK A01 T00300009  RH  086%=      5-min Rain = 0
KBI1 090720Z 35004KT 03/01 A303 RMK A01 T00300009  RH  086%=      5-min Rain = 0
KBI1 090721Z 35004KT 03/01 A303 RMK A01 T00300009  RH  086%=      5-min Rain = 0
KBI1 090722Z 35004KT 03/01 A303 RMK A01 T00300009  RH  086%=      5-min Rain = 0
KBI1 090723Z 35004KT 03/01 A303 RMK A01 T00290009  RH  086%=      5-min Rain = 0
KBI1 090724Z 35004KT 03/01 A303 RMK A01 T00290009  RH  086%=      5-min Rain = 0
KBI1 090725Z 35003KT 03/01 A303 RMK A01 T00290008  RH  086%=      5-min Rain = 0
KBI1 090726Z 35003KT 03/01 A303 RMK A01 T00280008  RH  086%=      5-min Rain = 0
KBI1 090727Z 36003KT 03/01 A303 RMK A01 T00280008  RH  087%=      5-min Rain = 0
KBI1 090728Z 00003KT 03/01 A303 RMK A01 T00270008  RH  087%=      5-min Rain = 0
KBI1 090729Z 36004KT 03/01 A303 RMK A01 T00270008  RH  087%=      5-min Rain = 0
KBI1 090730Z 36004KT 03/01 A3029 RMK A01 T00270008  RH  087%=      5-min Rain = 0
KBI1 090731Z 00003KT 03/01 A3029 RMK A01 T00260008  RH  088%=      5-min Rain = 0
KBI1 090732Z 00003KT 03/01 A3029 RMK A01 T00260008  RH  088%=      5-min Rain = 0
KBI1 090733Z 00003KT 03/01 A3029 RMK A01 T00260008  RH  088%=      5-min Rain = 0
KBI1 090734Z 00003KT 03/01 A3029 RMK A01 T00250007  RH  088%=      5-min Rain = 0
KBI1 090735Z 01003KT 03/01 A3029 RMK A01 T00250007  RH  088%=      5-min Rain = 0
KBI1 090736Z 01003KT 02/01 A3029 RMK A01 T00240007  RH  088%=      5-min Rain = 0
KBI1 090737Z 01003KT 02/01 A3029 RMK A01 T00240007  RH  089%=      5-min Rain = 0
KBI1 090738Z 01003KT 02/01 A3029 RMK A01 T00240008  RH  089%=      5-min Rain = 0
KBI1 090739Z 01003KT 02/01 A3029 RMK A01 T00240008  RH  089%=      5-min Rain = 0
KBI1 090740Z 01003KT 02/01 A3029 RMK A01 T00240008  RH  089%=      5-min Rain = 0
KBI1 090741Z 01003KT 02/01 A3029 RMK A01 T00240008  RH  089%=      5-min Rain = 0
KBI1 090742Z 01003KT 02/01 A3029 RMK A01 T00240008  RH  089%=      5-min Rain = 0
KBI1 090743Z 01003KT 02/01 A3029 RMK A01 T00240008  RH  089%=      5-min Rain = 0
KBI1 090744Z 01003KT 02/01 A3029 RMK A01 T00230008  RH  089%=      5-min Rain = 0
KBI1 090745Z 01003KT 02/01 A3029 RMK A01 T00230008  RH  090%=      5-min Rain = 0
KBI1 090746Z 01003KT 02/01 A3028 RMK A01 T00230008  RH  090%=      5-min Rain = 0
KBI1 090747Z 01003KT 02/01 A3028 RMK A01 T00230008  RH  090%=      5-min Rain = 0
KBI1 090748Z 01003KT 02/01 A3028 RMK A01 T00220008  RH  090%=      5-min Rain = 0
KBI1 090749Z 01003KT 02/01 A3028 RMK A01 T00220008  RH  090%=      5-min Rain = 0
KBI1 090750Z 01003KT 02/01 A3028 RMK A01 T00220008  RH  090%=      5-min Rain = 0
KBI1 090751Z 01003KT 02/01 A3028 RMK A01 T00220008  RH  090%=      5-min Rain = 0
KBI1 090752Z 01003KT 02/01 A3028 RMK A01 T00220008  RH  091%=      5-min Rain = 0
KBI1 090753Z 00003KT 02/01 A3028 RMK A01 T00220008  RH  091%=      5-min Rain = 0
KBI1 090754Z 00003KT 02/01 A3028 RMK A01 T00220008  RH  091%=      5-min Rain = 0
KBI1 090755Z 00003KT 02/01 A3028 RMK A01 T00220008  RH  091%=      5-min Rain = 0
KBI1 090756Z 00003KT 02/01 A3028 RMK A01 T00220008  RH  091%=      5-min Rain = 0
KBI1 090757Z 00004KT 02/01 A3028 RMK A01 T00220008  RH  091%=      5-min Rain = 0
KBI1 090758Z 01004KT 02/01 A3028 RMK A01 T00210007  RH  090%=      5-min Rain = 0
KBI1 090759Z 01004KT 02/01 A3028 RMK A01 T00210007  RH  090%=      5-min Rain = 0
KBI1 090800Z 00004KT 02/01 A3028 RMK A01 T00200006  RH  090%=      5-min Rain = 0
KBI1 090801Z 36004KT 02/01 A3028 RMK A01 T00200006  RH  090%=      5-min Rain = 0
KBI1 090802Z 36004KT 02/01 A3028 RMK A01 T00200005  RH  090%=      5-min Rain = 0
KBI1 090803Z 36004KT 02/01 A3028 RMK A01 T00190005  RH  090%=      5-min Rain = 0
KBI1 090804Z 35003KT 02/01 A3028 RMK A01 T00190005  RH  091%=      5-min Rain = 0
KBI1 090805Z 35003KT 02/01 A3028 RMK A01 T00190005  RH  091%=      5-min Rain = 0
KBI1 090806Z 34003KT 02/01 A3028 RMK A01 T00180005  RH  091%=      5-min Rain = 0
KBI1 090807Z 34003KT 02/00 A3028 RMK A01 T00170004  RH  091%=      5-min Rain = 0
KBI1 090808Z 34003KT 02/00 A3028 RMK A01 T00160002  RH  090%=      5-min Rain = 0
KBI1 090809Z 34003KT 02/00 A3028 RMK A01 T00150002  RH  091%=      5-min Rain = 0
KBI1 090810Z 34003KT 02/00 A3028 RMK A01 T00150002  RH  091%=      5-min Rain = 0
KBI1 090811Z 34004KT 02/00 A3028 RMK A01 T00150002  RH  091%=      5-min Rain = 0
KBI1 090812Z 34004KT 01/00 A3028 RMK A01 T00140002  RH  091%=      5-min Rain = 0
KBI1 090813Z 34004KT 01/00 A3028 RMK A01 T00140002  RH  092%=      5-min Rain = 0
KBI1 090814Z 33004KT 01/00 A3028 RMK A01 T00140002  RH  092%=      5-min Rain = 0
KBI1 090815Z 33004KT 01/00 A3028 RMK A01 T00140002  RH  092%=      5-min Rain = 0
KBI1 090816Z 33004KT 01/00 A3028 RMK A01 T00130001  RH  092%=      5-min Rain = 0
KBI1 090817Z 33004KT 01/00 A3028 RMK A01 T00130001  RH  092%=      5-min Rain = 0
KBI1 090818Z 33004KT 01/00 A3028 RMK A01 T00130001  RH  092%=      5-min Rain = 0
KBI1 090819Z 33004KT 01/00 A3028 RMK A01 T00120001  RH  092%=      5-min Rain = 0
KBI1 090820Z 33004KT 01/00 A3028 RMK A01 T00120001  RH  092%=      5-min Rain = 0
KBI1 090821Z 33004KT 01/00 A3028 RMK A01 T00120002  RH  093%=      5-min Rain = 0
KBI1 090822Z 33004KT 01/00 A3028 RMK A01 T00120001  RH  093%=      5-min Rain = 0
KBI1 090823Z 33004KT 01/00 A3028 RMK A01 T00120001  RH  093%=      5-min Rain = 0
KBI1 090824Z 33004KT 01/00 A3028 RMK A01 T00120002  RH  093%=      5-min Rain = 0
KBI1 090825Z 33004KT 01/00 A3028 RMK A01 T00120001  RH  093%=      5-min Rain = 0
KBI1 090826Z 33004KT 01/00 A3028 RMK A01 T00120001  RH  093%=      5-min Rain = 0
KBI1 090827Z 33004KT 01/00 A3028 RMK A01 T00110000  RH  093%=      5-min Rain = 0
KBI1 090828Z 33004KT 01/00 A3028 RMK A01 T00110000  RH  093%=      5-min Rain = 0
KBI1 090829Z 33004KT 01/M00 A3028 RMK A01 T00101001  RH  093%=      5-min Rain = 0
KBI1 090830Z 33004KT 01/M00 A3028 RMK A01 T00091001  RH  093%=      5-min Rain = 0
KBI1 090831Z 33004KT 01/M00 A3028 RMK A01 T00091002  RH  093%=      5-min Rain = 0
KBI1 090832Z 33004KT 01/M00 A3028 RMK A01 T00091001  RH  093%=      5-min Rain = 0
KBI1 090833Z 33004KT 01/M00 A3028 RMK A01 T00091001  RH  093%=      5-min Rain = 0
KBI1 090834Z 32004KT 01/M00 A3028 RMK A01 T00091001  RH  093%=      5-min Rain = 0
KBI1 090835Z 32004KT 01/M00 A3028 RMK A01 T00091001  RH  094%=      5-min Rain = 0
KBI1 090836Z 33004KT 01/00 A3028 RMK A01 T000900-0  RH  094%=      5-min Rain = 0
KBI1 090837Z 33004KT 01/00 A3028 RMK A01 T00090000  RH  094%=      5-min Rain = 0
KBI1 090838Z 33003KT 01/00 A3028 RMK A01 T00090000  RH  094%=      5-min Rain = 0
KBI1 090839Z 34004KT 01/00 A3028 RMK A01 T00090000  RH  094%=      5-min Rain = 0
KBI1 090840Z 34004KT 01/00 A3028 RMK A01 T00090000  RH  094%=      5-min Rain = 0
KBI1 090841Z 35003KT 01/00 A3028 RMK A01 T00090001  RH  094%=      5-min Rain = 0
KBI1 090842Z 36003KT 01/00 A3028 RMK A01 T000900-0  RH  094%=      5-min Rain = 0
KBI1 090843Z 00003KT 01/M00 A3028 RMK A01 T00081001  RH  094%=      5-min Rain = 0
KBI1 090844Z 00003KT 01/00 A3028 RMK A01 T000800-0  RH  094%=      5-min Rain = 0
KBI1 090845Z 01004KT 01/00 A3028 RMK A01 T00080000  RH  094%=      5-min Rain = 0
KBI1 090846Z 00004KT 01/00 A3028 RMK A01 T00090000  RH  094%=      5-min Rain = 0
KBI1 090847Z 00004KT 01/00 A3028 RMK A01 T00090000  RH  094%=      5-min Rain = 0
KBI1 090848Z 00004KT 01/00 A3028 RMK A01 T00080000  RH  094%=      5-min Rain = 0
KBI1 090849Z 36004KT 01/00 A3028 RMK A01 T000800-0  RH  094%=      5-min Rain = 0
KBI1 090850Z 00004KT 01/M00 A3028 RMK A01 T00081001  RH  094%=      5-min Rain = 0
KBI1 090851Z 00004KT 01/00 A3028 RMK A01 T000800-0  RH  094%=      5-min Rain = 0
KBI1 090852Z 00003KT 01/00 A3028 RMK A01 T000800-0  RH  095%=      5-min Rain = 0
KBI1 090853Z 00003KT 01/00 A3028 RMK A01 T00080000  RH  095%=      5-min Rain = 0
KBI1 090854Z 36003KT 01/00 A3028 RMK A01 T00080001  RH  095%=      5-min Rain = 0
KBI1 090855Z 35003KT 01/00 A3028 RMK A01 T00090001  RH  095%=      5-min Rain = 0
KBI1 090856Z 35003KT 01/00 A3028 RMK A01 T00090001  RH  095%=      5-min Rain = 0
KBI1 090857Z 35003KT 01/00 A3028 RMK A01 T00090001  RH  095%=      5-min Rain = 0
KBI1 090858Z 35002KT 01/00 A3028 RMK A01 T00090001  RH  095%=      5-min Rain = 0
KBI1 090859Z 35003KT 01/00 A3028 RMK A01 T00080001  RH  095%=      5-min Rain = 0
KBI1 090900Z 34003KT 01/00 A3028 RMK A01 T00080001  RH  095%=      5-min Rain = 0
KBI1 090901Z 34003KT 01/00 A3028 RMK A01 T00080000  RH  095%=      5-min Rain = 0
KBI1 090902Z 34003KT 01/00 A3028 RMK A01 T00080000  RH  095%=      5-min Rain = 0
KBI1 090903Z 34002KT 01/M00 A3028 RMK A01 T00071001  RH  095%=      5-min Rain = 0
KBI1 090904Z 34002KT 01/M00 A3028 RMK A01 T00061002  RH  094%=      5-min Rain = 0
KBI1 090905Z 34002KT 01/M00 A3028 RMK A01 T00051004  RH  094%=      5-min Rain = 0
KBI1 090906Z 34002KT 00/M00 A3028 RMK A01 T00041004  RH  094%=      5-min Rain = 0
KBI1 090907Z 34003KT 00/M00 A3028 RMK A01 T00041004  RH  095%=      5-min Rain = 0
KBI1 090908Z 33003KT 00/M00 A3028 RMK A01 T00041004  RH  095%=      5-min Rain = 0
KBI1 090909Z 33003KT 00/M00 A3028 RMK A01 T00041004  RH  095%=      5-min Rain = 0
KBI1 090910Z 33002KT 00/M00 A3028 RMK A01 T00031004  RH  095%=      5-min Rain = 0
KBI1 090911Z 33003KT 00/M00 A3028 RMK A01 T00031004  RH  095%=      5-min Rain = 0
KBI1 090912Z 33003KT 00/M01 A3028 RMK A01 T00021005  RH  095%=      5-min Rain = 0
KBI1 090913Z 33003KT 00/M01 A3028 RMK A01 T00021005  RH  095%=      5-min Rain = 0
KBI1 090914Z 33003KT 00/M01 A3028 RMK A01 T00021005  RH  095%=      5-min Rain = 0
KBI1 090915Z 33003KT 00/M01 A3028 RMK A01 T00021005  RH  095%=      5-min Rain = 0
KBI1 090916Z 33003KT 00/M00 A3028 RMK A01 T00021004  RH  095%=      5-min Rain = 0
KBI1 090917Z 33003KT 00/M00 A3028 RMK A01 T00021004  RH  095%=      5-min Rain = 0
KBI1 090918Z 33003KT 00/M00 A3028 RMK A01 T00031004  RH  096%=      5-min Rain = 0
KBI1 090919Z 33003KT 00/M00 A3028 RMK A01 T00031003  RH  096%=      5-min Rain = 0
KBI1 090920Z 33003KT 00/M00 A3028 RMK A01 T00031003  RH  096%=      5-min Rain = 0
KBI1 090921Z 33003KT 00/M00 A3028 RMK A01 T00041002  RH  096%=      5-min Rain = 0
KBI1 090922Z 33003KT 00/M00 A3028 RMK A01 T00041002  RH  096%=      5-min Rain = 0
KBI1 090923Z 33003KT 00/M00 A3028 RMK A01 T00041002  RH  096%=      5-min Rain = 0
KBI1 090924Z 32003KT 00/M00 A3028 RMK A01 T00041002  RH  096%=      5-min Rain = 0
KBI1 090925Z 33003KT 00/M00 A3028 RMK A01 T00041002  RH  096%=      5-min Rain = 0
KBI1 090926Z 32003KT 00/M00 A3028 RMK A01 T00041002  RH  096%=      5-min Rain = 0
KBI1 090927Z 32003KT 00/M00 A3028 RMK A01 T00041002  RH  096%=      5-min Rain = 0
KBI1 090928Z 32003KT 00/M00 A3028 RMK A01 T00031003  RH  096%=      5-min Rain = 0
KBI1 090929Z 32003KT 00/M00 A3028 RMK A01 T00021003  RH  096%=      5-min Rain = 0
KBI1 090930Z 33003KT 00/M00 A3028 RMK A01 T00021004  RH  096%=      5-min Rain = 0
KBI1 090931Z 33003KT 00/M00 A3028 RMK A01 T00021003  RH  096%=      5-min Rain = 0
KBI1 090932Z 33003KT 00/M00 A3028 RMK A01 T00021004  RH  096%=      5-min Rain = 0
KBI1 090933Z 33003KT 00/M00 A3028 RMK A01 T00021003  RH  096%=      5-min Rain = 0
KBI1 090934Z 33003KT 00/M00 A3028 RMK A01 T00021004  RH  096%=      5-min Rain = 0
KBI1 090935Z 34004KT 00/M00 A3028 RMK A01 T00011004  RH  096%=      5-min Rain = 0
KBI1 090936Z 34004KT 00/M01 A3028 RMK A01 T00011005  RH  096%=      5-min Rain = 0
KBI1 090937Z 34004KT 00/01 A3028 RMK A01 T000000-6  RH  096%=      5-min Rain = 0
KBI1 090938Z 33004KT 00/01 A3028 RMK A01 T00-000-6  RH  096%=      5-min Rain = 0
KBI1 090939Z 33004KT M00/M01 A3028 RMK A01 T10011006  RH  096%=      5-min Rain = 0
KBI1 090940Z 33004KT M00/M01 A3028 RMK A01 T10011006  RH  096%=      5-min Rain = 0
KBI1 090941Z 33004KT 00/01 A3028 RMK A01 T000000-5  RH  097%=      5-min Rain = 0
KBI1 090942Z 32004KT 00/M00 A3028 RMK A01 T00011003  RH  097%=      5-min Rain = 0
KBI1 090943Z 32004KT 00/M00 A3028 RMK A01 T00021003  RH  097%=      5-min Rain = 0
KBI1 090944Z 32004KT 00/M00 A3028 RMK A01 T00031002  RH  097%=      5-min Rain = 0
KBI1 090945Z 32004KT 00/M00 A3028 RMK A01 T00031001  RH  097%=      5-min Rain = 0
KBI1 090946Z 33004KT 00/M00 A3028 RMK A01 T00041001  RH  097%=      5-min Rain = 0
KBI1 090947Z 32005KT 00/00 A3028 RMK A01 T000400-0  RH  097%=      5-min Rain = 0
KBI1 090948Z 33004KT 01/00 A3028 RMK A01 T00050000  RH  097%=      5-min Rain = 0
KBI1 090949Z 32004KT 01/00 A3028 RMK A01 T00050000  RH  097%=      5-min Rain = 0
KBI1 090950Z 32004KT 01/00 A3028 RMK A01 T00050000  RH  097%=      5-min Rain = 0
KBI1 090951Z 32004KT 01/00 A3028 RMK A01 T000500-0  RH  097%=      5-min Rain = 0
KBI1 090952Z 32004KT 00/00 A3029 RMK A01 T000400-0  RH  097%=      5-min Rain = 0
KBI1 090953Z 32003KT 00/M00 A3029 RMK A01 T00031003  RH  096%=      5-min Rain = 0
KBI1 090954Z 32003KT 00/01 A3028 RMK A01 T00-000-6  RH  096%=      5-min Rain = 0
KBI1 090955Z 32003KT M00/M01 A3028 RMK A01 T10021008  RH  096%=      5-min Rain = 0
KBI1 090956Z 32003KT M00/M01 A3029 RMK A01 T10021008  RH  096%=      5-min Rain = 0
KBI1 090957Z 32003KT M00/M01 A3029 RMK A01 T10021008  RH  096%=      5-min Rain = 0
KBI1 090958Z 32003KT M00/M01 A3029 RMK A01 T10021008  RH  096%=      5-min Rain = 0
KBI1 090959Z 32003KT M00/M01 A3029 RMK A01 T10021008  RH  096%=      5-min Rain = 0
KBI1 091000Z 32003KT M00/M01 A3029 RMK A01 T10021008  RH  096%=      5-min Rain = 0
KBI1 091001Z 33003KT M00/M01 A3029 RMK A01 T10021007  RH  097%=      5-min Rain = 0
KBI1 091002Z 32003KT M00/M01 A3029 RMK A01 T10011005  RH  097%=      5-min Rain = 0
KBI1 091003Z 32003KT 00/01 A3029 RMK A01 T00-000-5  RH  097%=      5-min Rain = 0
KBI1 091004Z 32003KT 00/01 A3028 RMK A01 T00-000-5  RH  097%=      5-min Rain = 0
KBI1 091005Z 32003KT 00/01 A3029 RMK A01 T00-000-5  RH  097%=      5-min Rain = 0
KBI1 091006Z 32002KT 00/01 A3029 RMK A01 T00-000-5  RH  097%=      5-min Rain = 0
KBI1 091007Z 31003KT M00/M01 A3029 RMK A01 T10011006  RH  097%=      5-min Rain = 0
KBI1 091008Z 32003KT M00/M01 A3029 RMK A01 T10011006  RH  097%=      5-min Rain = 0
KBI1 091009Z 31003KT M00/M01 A3029 RMK A01 T10011006  RH  097%=      5-min Rain = 0
KBI1 091010Z 32003KT M00/M01 A3029 RMK A01 T10011006  RH  097%=      5-min Rain = 0
KBI1 091011Z 32003KT M00/M01 A3029 RMK A01 T10011006  RH  097%=      5-min Rain = 0
KBI1 091012Z 32002KT M00/M01 A3029 RMK A01 T10021006  RH  097%=      5-min Rain = 0
KBI1 091013Z 32002KT M00/M01 A3029 RMK A01 T10021006  RH  097%=      5-min Rain = 0
KBI1 091014Z 32002KT M00/M01 A3029 RMK A01 T10021006  RH  097%=      5-min Rain = 0
KBI1 091015Z 32002KT M00/M01 A3029 RMK A01 T10021007  RH  097%=      5-min Rain = 0
KBI1 091016Z 32002KT M00/M01 A3029 RMK A01 T10021007  RH  097%=      5-min Rain = 0
KBI1 091017Z 32002KT M00/M01 A3029 RMK A01 T10031007  RH  097%=      5-min Rain = 0
KBI1 091018Z 32002KT M00/M01 A3029 RMK A01 T10031008  RH  097%=      5-min Rain = 0
KBI1 091019Z 32002KT M00/M01 A3029 RMK A01 T10041009  RH  097%=      5-min Rain = 0
KBI1 091020Z 32002KT M00/M01 A3029 RMK A01 T10041009  RH  097%=      5-min Rain = 0
KBI1 091021Z 32002KT M01/M01 A3029 RMK A01 T10051010  RH  097%=      5-min Rain = 0
KBI1 091022Z 32002KT M01/M01 A3029 RMK A01 T10051010  RH  096%=      5-min Rain = 0
KBI1 091023Z 32002KT M01/M01 A3029 RMK A01 T10061011  RH  097%=      5-min Rain = 0
KBI1 091024Z 32002KT M01/M01 A3029 RMK A01 T10051010  RH  097%=      5-min Rain = 0
KBI1 091025Z 32002KT M01/M01 A3029 RMK A01 T10051009  RH  097%=      5-min Rain = 0
KBI1 091026Z 32003KT M00/M01 A3029 RMK A01 T10041009  RH  097%=      5-min Rain = 0
KBI1 091027Z 32002KT M00/M01 A3029 RMK A01 T10041009  RH  097%=      5-min Rain = 0
KBI1 091028Z 31002KT M00/M01 A3029 RMK A01 T10041008  RH  097%=      5-min Rain = 0
KBI1 091029Z 31002KT M00/M01 A3029 RMK A01 T10031008  RH  097%=      5-min Rain = 0
KBI1 091030Z 31002KT M00/M01 A3029 RMK A01 T10031007  RH  097%=      5-min Rain = 0
KBI1 091031Z 31002KT M00/M01 A3029 RMK A01 T10031008  RH  097%=      5-min Rain = 0
KBI1 091032Z 31003KT M00/M01 A3029 RMK A01 T10031007  RH  097%=      5-min Rain = 0
KBI1 091033Z 31003KT M00/M01 A3029 RMK A01 T10031007  RH  097%=      5-min Rain = 0
KBI1 091034Z 32003KT M00/M01 A3029 RMK A01 T10031007  RH  097%=      5-min Rain = 0
KBI1 091035Z 32003KT M00/M01 A3029 RMK A01 T10021006  RH  097%=      5-min Rain = 0
KBI1 091036Z 32003KT M00/M01 A3029 RMK A01 T10021006  RH  097%=      5-min Rain = 0
KBI1 091037Z 32003KT M00/M01 A3029 RMK A01 T10021006  RH  097%=      5-min Rain = 0
KBI1 091038Z 32003KT M00/M01 A3029 RMK A01 T10021006  RH  097%=      5-min Rain = 0
KBI1 091039Z 32003KT M00/M01 A3029 RMK A01 T10011005  RH  097%=      5-min Rain = 0
KBI1 091040Z 32003KT M00/M01 A3029 RMK A01 T10011005  RH  097%=      5-min Rain = 0
KBI1 091041Z 32003KT M00/M01 A3029 RMK A01 T10011005  RH  097%=      5-min Rain = 0
KBI1 091042Z 31003KT M00/M01 A3029 RMK A01 T10011005  RH  097%=      5-min Rain = 0
KBI1 091043Z 31003KT M00/M01 A3029 RMK A01 T10011005  RH  097%=      5-min Rain = 0
KBI1 091044Z 32003KT M00/M01 A3029 RMK A01 T10011005  RH  097%=      5-min Rain = 0
KBI1 091045Z 32003KT M00/M01 A3029 RMK A01 T10011005  RH  097%=      5-min Rain = 0
KBI1 091046Z 32003KT M00/M01 A3029 RMK A01 T10011005  RH  097%=      5-min Rain = 0
KBI1 091047Z 32003KT M00/M01 A3029 RMK A01 T10011005  RH  097%=      5-min Rain = 0
KBI1 091048Z 32003KT M00/M01 A3029 RMK A01 T10011005  RH  097%=      5-min Rain = 0
KBI1 091049Z 33003KT M00/M01 A3029 RMK A01 T10011005  RH  097%=      5-min Rain = 0
KBI1 091050Z 33003KT M00/M01 A3029 RMK A01 T10011005  RH  097%=      5-min Rain = 0
KBI1 091051Z 33003KT M00/M01 A3029 RMK A01 T10021006  RH  097%=      5-min Rain = 0
KBI1 091052Z 33003KT M00/M01 A3029 RMK A01 T10021006  RH  097%=      5-min Rain = 0
KBI1 091053Z 33003KT M00/M01 A3029 RMK A01 T10031007  RH  097%=      5-min Rain = 0
KBI1 091054Z 34003KT M00/M01 A3029 RMK A01 T10031007  RH  097%=      5-min Rain = 0
KBI1 091055Z 34003KT M00/M01 A3029 RMK A01 T10031007  RH  097%=      5-min Rain = 0
KBI1 091056Z 34004KT M00/M01 A3029 RMK A01 T10031007  RH  097%=      5-min Rain = 0
KBI1 091057Z 34004KT M00/M01 A3029 RMK A01 T10031007  RH  097%=      5-min Rain = 0
KBI1 091058Z 34004KT M00/M01 A3029 RMK A01 T10031007  RH  097%=      5-min Rain = 0
KBI1 091059Z 34004KT M00/M01 A3029 RMK A01 T10041008  RH  097%=      5-min Rain = 0
KBI1 091100Z 34004KT M00/M01 A3029 RMK A01 T10041008  RH  097%=      5-min Rain = 0
KBI1 091101Z 34004KT M00/M01 A3029 RMK A01 T10041007  RH  097%=      5-min Rain = 0
KBI1 091102Z 34004KT M00/M01 A3029 RMK A01 T10041007  RH  097%=      5-min Rain = 0
KBI1 091103Z 35004KT M00/M01 A3029 RMK A01 T10041007  RH  097%=      5-min Rain = 0
KBI1 091104Z 34004KT M00/M01 A3029 RMK A01 T10041007  RH  097%=      5-min Rain = 0
KBI1 091105Z 34004KT M00/M01 A3029 RMK A01 T10041008  RH  097%=      5-min Rain = 0
KBI1 091106Z 34004KT M00/M01 A3029 RMK A01 T10041007  RH  097%=      5-min Rain = 0
KBI1 091107Z 34004KT M00/M01 A3029 RMK A01 T10041007  RH  098%=      5-min Rain = 0
KBI1 091108Z 34004KT M00/M01 A3029 RMK A01 T10031007  RH  098%=      5-min Rain = 0
KBI1 091109Z 34004KT M00/M01 A3029 RMK A01 T10031007  RH  098%=      5-min Rain = 0
KBI1 091110Z 34004KT M00/M01 A3029 RMK A01 T10031007  RH  098%=      5-min Rain = 0
KBI1 091111Z 35004KT M00/M01 A3029 RMK A01 T10031007  RH  098%=      5-min Rain = 0
KBI1 091112Z 35004KT M00/M01 A3029 RMK A01 T10041007  RH  098%=      5-min Rain = 0
KBI1 091113Z 35004KT M00/M01 A3029 RMK A01 T10041007  RH  098%=      5-min Rain = 0
KBI1 091114Z 35004KT M00/M01 A3029 RMK A01 T10041007  RH  098%=      5-min Rain = 0
KBI1 091115Z 35004KT M00/M01 A3029 RMK A01 T10041007  RH  098%=      5-min Rain = 0
KBI1 091116Z 35004KT M00/M01 A3029 RMK A01 T10041007  RH  098%=      5-min Rain = 0
KBI1 091117Z 35004KT M00/M01 A3029 RMK A01 T10041008  RH  098%=      5-min Rain = 0
KBI1 091118Z 36004KT M00/M01 A3029 RMK A01 T10041008  RH  098%=      5-min Rain = 0
KBI1 091119Z 00004KT M01/M01 A3029 RMK A01 T10051008  RH  098%=      5-min Rain = 0
KBI1 091120Z 00004KT M00/M01 A3029 RMK A01 T10041008  RH  098%=      5-min Rain = 0
KBI1 091121Z 00004KT M00/M01 A3029 RMK A01 T10041007  RH  098%=      5-min Rain = 0
KBI1 091122Z 00004KT M00/M01 A3029 RMK A01 T10041007  RH  098%=      5-min Rain = 0
KBI1 091123Z 00004KT M00/M01 A3029 RMK A01 T10031007  RH  098%=      5-min Rain = 0
KBI1 091124Z 00004KT M00/M01 A3029 RMK A01 T10031007  RH  098%=      5-min Rain = 0
KBI1 091125Z 00005KT M00/M01 A3029 RMK A01 T10031006  RH  098%=      5-min Rain = 0
KBI1 091126Z 36005KT M00/M01 A3029 RMK A01 T10021005  RH  098%=      5-min Rain = 0
KBI1 091127Z 35005KT M00/M01 A3029 RMK A01 T10021005  RH  098%=      5-min Rain = 0
KBI1 091128Z 35005KT M00/M00 A3029 RMK A01 T10011004  RH  098%=      5-min Rain = 0
KBI1 091129Z 35005KT M00/M00 A3029 RMK A01 T10011004  RH  098%=      5-min Rain = 0
KBI1 091130Z 35005KT M00/M00 A3029 RMK A01 T10011004  RH  098%=      5-min Rain = 0
KBI1 091131Z 35005KT M00/M01 A3029 RMK A01 T10021005  RH  098%=      5-min Rain = 0
KBI1 091132Z 35005KT M00/M01 A3029 RMK A01 T10021005  RH  098%=      5-min Rain = 0
KBI1 091133Z 34005KT M00/M01 A3029 RMK A01 T10021005  RH  098%=      5-min Rain = 0
KBI1 091134Z 34005KT M00/M01 A3029 RMK A01 T10021005  RH  098%=      5-min Rain = 0
KBI1 091135Z 34005KT M00/M01 A3029 RMK A01 T10031006  RH  098%=      5-min Rain = 0
KBI1 091136Z 34005KT M00/M01 A3029 RMK A01 T10031006  RH  098%=      5-min Rain = 0
KBI1 091137Z 34004KT M00/M01 A303 RMK A01 T10031006  RH  098%=      5-min Rain = 0
KBI1 091138Z 34004KT M00/M01 A303 RMK A01 T10031007  RH  098%=      5-min Rain = 0
KBI1 091139Z 34004KT M00/M01 A303 RMK A01 T10041007  RH  098%=      5-min Rain = 0
KBI1 091140Z 33004KT M00/M01 A303 RMK A01 T10041007  RH  098%=      5-min Rain = 0
KBI1 091141Z 34005KT M01/M01 A303 RMK A01 T10051008  RH  098%=      5-min Rain = 0
KBI1 091142Z 34005KT M01/M01 A303 RMK A01 T10051008  RH  098%=      5-min Rain = 0
KBI1 091143Z 34004KT M01/M01 A303 RMK A01 T10051008  RH  098%=      5-min Rain = 0
KBI1 091144Z 33004KT M01/M01 A303 RMK A01 T10051008  RH  098%=      5-min Rain = 0
KBI1 091145Z 33004KT M01/M01 A303 RMK A01 T10051009  RH  098%=      5-min Rain = 0
KBI1 091146Z 33005KT M01/M01 A303 RMK A01 T10051009  RH  098%=      5-min Rain = 0
KBI1 091147Z 33005KT M01/M01 A303 RMK A01 T10051009  RH  098%=      5-min Rain = 0
KBI1 091148Z 33005KT M01/M01 A303 RMK A01 T10051009  RH  098%=      5-min Rain = 0
KBI1 091149Z 33004KT M01/M01 A303 RMK A01 T10061009  RH  098%=      5-min Rain = 0
KBI1 091150Z 33004KT M01/M01 A303 RMK A01 T10071011  RH  098%=      5-min Rain = 0
KBI1 091151Z 33004KT M01/M01 A303 RMK A01 T10081011  RH  098%=      5-min Rain = 0
KBI1 091152Z 33004KT M01/M01 A303 RMK A01 T10091012  RH  097%=      5-min Rain = 0
KBI1 091153Z 33004KT M01/M01 A303 RMK A01 T10091012  RH  098%=      5-min Rain = 0
KBI1 091154Z 34004KT M01/M01 A303 RMK A01 T10091012  RH  098%=      5-min Rain = 0
KBI1 091155Z 34004KT M01/M01 A303 RMK A01 T10081011  RH  098%=      5-min Rain = 0
KBI1 091156Z 34004KT M01/M01 A303 RMK A01 T10071010  RH  098%=      5-min Rain = 0
KBI1 091157Z 34004KT M01/M01 A303 RMK A01 T10071010  RH  098%=      5-min Rain = 0
KBI1 091158Z 34004KT M01/M01 A303 RMK A01 T10071010  RH  098%=      5-min Rain = 0
KBI1 091159Z 35004KT M01/M01 A303 RMK A01 T10071010  RH  098%=      5-min Rain = 0
KBI1 091200Z 35004KT M01/M01 A303 RMK A01 T10071010  RH  098%=      5-min Rain = 0
KBI1 091201Z 35004KT M01/M01 A303 RMK A01 T10071010  RH  098%=      5-min Rain = 0
KBI1 091202Z 35004KT M01/M01 A303 RMK A01 T10071010  RH  098%=      5-min Rain = 0
KBI1 091203Z 35004KT M01/M01 A303 RMK A01 T10071010  RH  098%=      5-min Rain = 0
KBI1 091204Z 35004KT M01/M01 A3031 RMK A01 T10071010  RH  098%=      5-min Rain = 0
KBI1 091205Z 35003KT M01/M01 A3031 RMK A01 T10071010  RH  098%=      5-min Rain = 0
KBI1 091206Z 34004KT M01/M01 A3031 RMK A01 T10071010  RH  098%=      5-min Rain = 0
KBI1 091207Z 34004KT M01/M01 A3031 RMK A01 T10071010  RH  098%=      5-min Rain = 0
KBI1 091208Z 34004KT M01/M01 A3031 RMK A01 T10071010  RH  098%=      5-min Rain = 0
KBI1 091209Z 34004KT M01/M01 A3031 RMK A01 T10071010  RH  098%=      5-min Rain = 0
KBI1 091210Z 34004KT M01/M01 A3031 RMK A01 T10071010  RH  098%=      5-min Rain = 0
KBI1 091211Z 34004KT M01/M01 A3031 RMK A01 T10081010  RH  098%=      5-min Rain = 0
KBI1 091212Z 34004KT M01/M01 A3031 RMK A01 T10071010  RH  098%=      5-min Rain = 0
KBI1 091213Z 35004KT M01/M01 A3031 RMK A01 T10071010  RH  098%=      5-min Rain = 0
KBI1 091214Z 35004KT M01/M01 A3031 RMK A01 T10071010  RH  098%=      5-min Rain = 0
KBI1 091215Z 35004KT M01/M01 A3031 RMK A01 T10071010  RH  098%=      5-min Rain = 0
KBI1 091216Z 35005KT M01/M01 A3031 RMK A01 T10081011  RH  098%=      5-min Rain = 0
KBI1 091217Z 35005KT M01/M01 A3031 RMK A01 T10081011  RH  098%=      5-min Rain = 0
KBI1 091218Z 35004KT M01/M01 A3031 RMK A01 T10081011  RH  098%=      5-min Rain = 0
KBI1 091219Z 34004KT M01/M01 A3031 RMK A01 T10081011  RH  098%=      5-min Rain = 0
KBI1 091220Z 35004KT M01/M01 A3031 RMK A01 T10081011  RH  098%=      5-min Rain = 0
KBI1 091221Z 35004KT M01/M01 A3031 RMK A01 T10091012  RH  098%=      5-min Rain = 0
KBI1 091222Z 35005KT M01/M01 A3032 RMK A01 T10091012  RH  098%=      5-min Rain = 0
KBI1 091223Z 35005KT M01/M01 A3032 RMK A01 T10091012  RH  098%=      5-min Rain = 0
KBI1 091224Z 35004KT M01/M01 A3032 RMK A01 T10091012  RH  098%=      5-min Rain = 0
KBI1 091225Z 35004KT M01/M01 A3032 RMK A01 T10091012  RH  098%=      5-min Rain = 0
KBI1 091226Z 35004KT M01/M01 A3032 RMK A01 T10091012  RH  098%=      5-min Rain = 0
KBI1 091227Z 35005KT M01/M01 A3032 RMK A01 T10091012  RH  098%=      5-min Rain = 0
KBI1 091228Z 36005KT M01/M01 A3032 RMK A01 T10091011  RH  098%=      5-min Rain = 0
KBI1 091229Z 36005KT M01/M01 A3032 RMK A01 T10091011  RH  098%=      5-min Rain = 0
KBI1 091230Z 00005KT M01/M01 A3032 RMK A01 T10091011  RH  098%=      5-min Rain = 0
KBI1 091231Z 36005KT M01/M01 A3032 RMK A01 T10091011  RH  098%=      5-min Rain = 0
KBI1 091232Z 00005KT M01/M01 A3032 RMK A01 T10091011  RH  098%=      5-min Rain = 0
KBI1 091233Z 36005KT M01/M01 A3032 RMK A01 T10091012  RH  098%=      5-min Rain = 0
KBI1 091234Z 00006KT M01/M01 A3032 RMK A01 T10091011  RH  098%=      5-min Rain = 0
KBI1 091235Z 00005KT M01/M01 A3032 RMK A01 T10081011  RH  098%=      5-min Rain = 0
KBI1 091236Z 36005KT M01/M01 A3032 RMK A01 T10071010  RH  098%=      5-min Rain = 0
KBI1 091237Z 36005KT M01/M01 A3032 RMK A01 T10061009  RH  098%=      5-min Rain = 0
KBI1 091238Z 35005KT M01/M01 A3032 RMK A01 T10051008  RH  098%=      5-min Rain = 0
KBI1 091239Z 36005KT M01/M01 A3033 RMK A01 T10051007  RH  098%=      5-min Rain = 0
KBI1 091240Z 00006KT M01/M01 A3033 RMK A01 T10051007  RH  098%=      5-min Rain = 0
KBI1 091241Z 00005KT M01/M01 A3033 RMK A01 T10051007  RH  098%=      5-min Rain = 0
KBI1 091242Z 00005KT M01/M01 A3033 RMK A01 T10061008  RH  098%=      5-min Rain = 0
KBI1 091243Z 00005KT M01/M01 A3033 RMK A01 T10061008  RH  098%=      5-min Rain = 0
KBI1 091244Z 00005KT M01/M01 A3033 RMK A01 T10061009  RH  098%=      5-min Rain = 0
KBI1 091245Z 36005KT M01/M01 A3033 RMK A01 T10061008  RH  098%=      5-min Rain = 0
KBI1 091246Z 00006KT M01/M01 A3033 RMK A01 T10071009  RH  098%=      5-min Rain = 0
KBI1 091247Z 36006KT M01/M01 A3033 RMK A01 T10061009  RH  098%=      5-min Rain = 0
KBI1 091248Z 00006KT M01/M01 A3033 RMK A01 T10061009  RH  098%=      5-min Rain = 0
KBI1 091249Z 00006KT M01/M01 A3033 RMK A01 T10071009  RH  098%=      5-min Rain = 0
KBI1 091250Z 00005KT M01/M01 A3033 RMK A01 T10071009  RH  098%=      5-min Rain = 0
KBI1 091251Z 00006KT M01/M01 A3033 RMK A01 T10071009  RH  098%=      5-min Rain = 0
KBI1 091252Z 01006KT M01/M01 A3033 RMK A01 T10071009  RH  098%=      5-min Rain = 0
KBI1 091253Z 01005KT M01/M01 A3033 RMK A01 T10071009  RH  098%=      5-min Rain = 0
KBI1 091254Z 01005KT M01/M01 A3033 RMK A01 T10061009  RH  098%=      5-min Rain = 0
KBI1 091255Z 01005KT M01/M01 A3033 RMK A01 T10061008  RH  098%=      5-min Rain = 0
KBI1 091256Z 01005KT M01/M01 A3033 RMK A01 T10061008  RH  098%=      5-min Rain = 0
KBI1 091257Z 01005KT M01/M01 A3033 RMK A01 T10061008  RH  098%=      5-min Rain = 0
KBI1 091258Z 01006KT M01/M01 A3033 RMK A01 T10061008  RH  098%=      5-min Rain = 0
KBI1 091259Z 01006KT M01/M01 A3033 RMK A01 T10051007  RH  098%=      5-min Rain = 0
KBI1 091300Z 01006KT M01/M01 A3033 RMK A01 T10051007  RH  098%=      5-min Rain = 0
KBI1 091301Z 01006KT M01/M01 A3033 RMK A01 T10051007  RH  098%=      5-min Rain = 0
KBI1 091302Z 01007KT M01/M01 A3033 RMK A01 T10051007  RH  098%=      5-min Rain = 0
KBI1 091303Z 01006KT M00/M01 A3033 RMK A01 T10041006  RH  098%=      5-min Rain = 0
KBI1 091304Z 01006KT M00/M01 A3033 RMK A01 T10041006  RH  098%=      5-min Rain = 0
KBI1 091305Z 02006KT M01/M01 A3033 RMK A01 T10051007  RH  098%=      5-min Rain = 0
KBI1 091306Z 02006KT M00/M01 A3033 RMK A01 T10041007  RH  098%=      5-min Rain = 0
KBI1 091307Z 02006KT M01/M01 A3033 RMK A01 T10051007  RH  098%=      5-min Rain = 0
KBI1 091308Z 02006KT M01/M01 A3033 RMK A01 T10051007  RH  098%=      5-min Rain = 0
KBI1 091309Z 02006KT M00/M01 A3033 RMK A01 T10041007  RH  098%=      5-min Rain = 0
KBI1 091310Z 02005KT M00/M01 A3033 RMK A01 T10041007  RH  098%=      5-min Rain = 0
KBI1 091311Z 02006KT M00/M01 A3033 RMK A01 T10041006  RH  098%=      5-min Rain = 0
KBI1 091312Z 02006KT M00/M01 A3033 RMK A01 T10041006  RH  098%=      5-min Rain = 0
KBI1 091313Z 02005KT M00/M01 A3033 RMK A01 T10041006  RH  098%=      5-min Rain = 0
KBI1 091314Z 02005KT M00/M01 A3033 RMK A01 T10041006  RH  098%=      5-min Rain = 0
KBI1 091315Z 02005KT M00/M01 A3033 RMK A01 T10041006  RH  098%=      5-min Rain = 0
KBI1 091316Z 03005KT M01/M01 A3033 RMK A01 T10051007  RH  098%=      5-min Rain = 0
KBI1 091317Z 02005KT M01/M01 A3033 RMK A01 T10051007  RH  098%=      5-min Rain = 0
KBI1 091318Z 02005KT M01/M01 A3033 RMK A01 T10051007  RH  098%=      5-min Rain = 0
KBI1 091319Z 02005KT M01/M01 A3033 RMK A01 T10051007  RH  098%=      5-min Rain = 0
KBI1 091320Z 02005KT M01/M01 A3033 RMK A01 T10051007  RH  098%=      5-min Rain = 0
KBI1 091321Z 02005KT M01/M01 A3033 RMK A01 T10051007  RH  098%=      5-min Rain = 0
KBI1 091322Z 02005KT M01/M01 A3033 RMK A01 T10051007  RH  098%=      5-min Rain = 0
KBI1 091323Z 02005KT M01/M01 A3033 RMK A01 T10051007  RH  098%=      5-min Rain = 0
KBI1 091324Z 02005KT M01/M01 A3034 RMK A01 T10051007  RH  098%=      5-min Rain = 0
KBI1 091325Z 02006KT M01/M01 A3034 RMK A01 T10051007  RH  099%=      5-min Rain = 0
KBI1 091326Z 02005KT M01/M01 A3034 RMK A01 T10051007  RH  098%=      5-min Rain = 0
KBI1 091327Z 02004KT M01/M01 A3034 RMK A01 T10051007  RH  098%=      5-min Rain = 0
KBI1 091328Z 02005KT M01/M01 A3034 RMK A01 T10051007  RH  098%=      5-min Rain = 0
KBI1 091329Z 01005KT M01/M01 A3034 RMK A01 T10051007  RH  098%=      5-min Rain = 0
KBI1 091330Z 01005KT M00/M01 A3034 RMK A01 T10041007  RH  098%=      5-min Rain = 0
KBI1 091331Z 01005KT M01/M01 A3034 RMK A01 T10051007  RH  098%=      5-min Rain = 0
KBI1 091332Z 02005KT M01/M01 A3034 RMK A01 T10051007  RH  098%=      5-min Rain = 0
KBI1 091333Z 01006KT M01/M01 A3034 RMK A01 T10051008  RH  098%=      5-min Rain = 0
KBI1 091334Z 01005KT M01/M01 A3034 RMK A01 T10051008  RH  098%=      5-min Rain = 0
KBI1 091335Z 01005KT M01/M01 A3034 RMK A01 T10051008  RH  098%=      5-min Rain = 0
KBI1 091336Z 01006KT M01/M01 A3034 RMK A01 T10051007  RH  098%=      5-min Rain = 0
KBI1 091337Z 01006KT M01/M01 A3034 RMK A01 T10051007  RH  098%=      5-min Rain = 0
KBI1 091338Z 01005KT M01/M01 A3034 RMK A01 T10051007  RH  098%=      5-min Rain = 0
KBI1 091339Z 01006KT M01/M01 A3034 RMK A01 T10051007  RH  098%=      5-min Rain = 0
KBI1 091340Z 01006KT M01/M01 A3034 RMK A01 T10051008  RH  098%=      5-min Rain = 0
KBI1 091341Z 01006KT M01/M01 A3034 RMK A01 T10051007  RH  098%=      5-min Rain = 0
KBI1 091342Z 01005KT M01/M01 A3034 RMK A01 T10051008  RH  098%=      5-min Rain = 0
KBI1 091343Z 01005KT M01/M01 A3034 RMK A01 T10051008  RH  098%=      5-min Rain = 0
KBI1 091344Z 01005KT M01/M01 A3034 RMK A01 T10061009  RH  098%=      5-min Rain = 0
KBI1 091345Z 00006KT M01/M01 A3034 RMK A01 T10061009  RH  098%=      5-min Rain = 0
KBI1 091346Z 01005KT M01/M01 A3034 RMK A01 T10061009  RH  098%=      5-min Rain = 0
KBI1 091347Z 00006KT M01/M01 A3034 RMK A01 T10071009  RH  098%=      5-min Rain = 0
KBI1 091348Z 00005KT M01/M01 A3034 RMK A01 T10061009  RH  098%=      5-min Rain = 0
KBI1 091349Z 01005KT M01/M01 A3034 RMK A01 T10071009  RH  098%=      5-min Rain = 0
KBI1 091350Z 00005KT M01/M01 A3034 RMK A01 T10061009  RH  098%=      5-min Rain = 0
KBI1 091351Z 00005KT M01/M01 A3034 RMK A01 T10061009  RH  098%=      5-min Rain = 0
KBI1 091352Z 01005KT M01/M01 A3034 RMK A01 T10061009  RH  098%=      5-min Rain = 0
KBI1 091353Z 00005KT M01/M01 A3034 RMK A01 T10061009  RH  098%=      5-min Rain = 0
KBI1 091354Z 01005KT M01/M01 A3034 RMK A01 T10071010  RH  098%=      5-min Rain = 0
KBI1 091355Z 01005KT M01/M01 A3034 RMK A01 T10071010  RH  098%=      5-min Rain = 0
KBI1 091356Z 00005KT M01/M01 A3035 RMK A01 T10061009  RH  098%=      5-min Rain = 0
KBI1 091357Z 01005KT M01/M01 A3035 RMK A01 T10071010  RH  098%=      5-min Rain = 0
KBI1 091358Z 01005KT M01/M01 A3035 RMK A01 T10061009  RH  098%=      5-min Rain = 0
KBI1 091359Z 00005KT M01/M01 A3035 RMK A01 T10061009  RH  098%=      5-min Rain = 0
KBI1 091400Z 01005KT M01/M01 A3035 RMK A01 T10071010  RH  098%=      5-min Rain = 0
KBI1 091401Z 01005KT M01/M01 A3035 RMK A01 T10071010  RH  098%=      5-min Rain = 0
KBI1 091402Z 01005KT M01/M01 A3035 RMK A01 T10061009  RH  098%=      5-min Rain = 0
KBI1 091403Z 01005KT M01/M01 A3035 RMK A01 T10061009  RH  098%=      5-min Rain = 0
KBI1 091404Z 01005KT M01/M01 A3035 RMK A01 T10061009  RH  098%=      5-min Rain = 0
KBI1 091405Z 01005KT M01/M01 A3035 RMK A01 T10061009  RH  098%=      5-min Rain = 0
KBI1 091406Z 01005KT M01/M01 A3035 RMK A01 T10061009  RH  098%=      5-min Rain = 0
KBI1 091407Z 01005KT M01/M01 A3035 RMK A01 T10051009  RH  098%=      5-min Rain = 0
KBI1 091408Z 00005KT M01/M01 A3035 RMK A01 T10051008  RH  098%=      5-min Rain = 0
KBI1 091409Z 00005KT M01/M01 A3035 RMK A01 T10051008  RH  098%=      5-min Rain = 0
KBI1 091410Z 00004KT M01/M01 A3035 RMK A01 T10051008  RH  098%=      5-min Rain = 0
KBI1 091411Z 00005KT M01/M01 A3035 RMK A01 T10051008  RH  098%=      5-min Rain = 0
KBI1 091412Z 00005KT M01/M01 A3035 RMK A01 T10051008  RH  097%=      5-min Rain = 0
KBI1 091413Z 00004KT M00/M01 A3035 RMK A01 T10041008  RH  097%=      5-min Rain = 0
KBI1 091414Z 00005KT M00/M01 A3036 RMK A01 T10041008  RH  097%=      5-min Rain = 0
KBI1 091415Z 00004KT M00/M01 A3036 RMK A01 T10041008  RH  097%=      5-min Rain = 0
KBI1 091416Z 36005KT M00/M01 A3036 RMK A01 T10041008  RH  097%=      5-min Rain = 0
KBI1 091417Z 00005KT M00/M01 A3036 RMK A01 T10041008  RH  097%=      5-min Rain = 0
KBI1 091418Z 00005KT M00/M01 A3036 RMK A01 T10031007  RH  097%=      5-min Rain = 0
KBI1 091419Z 00006KT M00/M01 A3036 RMK A01 T10031007  RH  097%=      5-min Rain = 0
KBI1 091420Z 00005KT M00/M01 A3036 RMK A01 T10031007  RH  097%=      5-min Rain = 0
KBI1 091421Z 00005KT M00/M01 A3036 RMK A01 T10031007  RH  097%=      5-min Rain = 0
KBI1 091422Z 36005KT M00/M01 A3036 RMK A01 T10031007  RH  097%=      5-min Rain = 0
KBI1 091423Z 00004KT M00/M01 A3036 RMK A01 T10021007  RH  097%=      5-min Rain = 0
KBI1 091424Z 00005KT M00/M01 A3036 RMK A01 T10021007  RH  097%=      5-min Rain = 0
KBI1 091425Z 00005KT M00/M01 A3036 RMK A01 T10021007  RH  097%=      5-min Rain = 0
KBI1 091426Z 00005KT M00/M01 A3036 RMK A01 T10021006  RH  097%=      5-min Rain = 0
KBI1 091427Z 01005KT M00/M01 A3036 RMK A01 T10011006  RH  097%=      5-min Rain = 0
KBI1 091428Z 01006KT M00/M01 A3036 RMK A01 T10011006  RH  097%=      5-min Rain = 0
KBI1 091429Z 01005KT M00/M01 A3036 RMK A01 T10011006  RH  097%=      5-min Rain = 0
KBI1 091430Z 01005KT M00/M01 A3036 RMK A01 T10011005  RH  097%=      5-min Rain = 0
KBI1 091431Z 01005KT 00/01 A3036 RMK A01 T00-000-5  RH  096%=      5-min Rain = 0
KBI1 091432Z 01005KT 00/01 A3037 RMK A01 T000000-5  RH  096%=      5-min Rain = 0
KBI1 091433Z 01005KT 00/01 A3037 RMK A01 T00-000-5  RH  096%=      5-min Rain = 0
KBI1 091434Z 01004KT 00/01 A3037 RMK A01 T000000-5  RH  096%=      5-min Rain = 0
KBI1 091435Z 01004KT 00/M01 A3037 RMK A01 T00011005  RH  096%=      5-min Rain = 0
KBI1 091436Z 01005KT 00/M00 A3037 RMK A01 T00011004  RH  096%=      5-min Rain = 0
KBI1 091437Z 01005KT 00/M00 A3036 RMK A01 T00021004  RH  096%=      5-min Rain = 0
KBI1 091438Z 01005KT 00/M00 A3037 RMK A01 T00021004  RH  096%=      5-min Rain = 0
KBI1 091439Z 01006KT 00/M00 A3037 RMK A01 T00021004  RH  096%=      5-min Rain = 0
KBI1 091440Z 01006KT 00/M00 A3037 RMK A01 T00031003  RH  096%=      5-min Rain = 0
KBI1 091441Z 01006KT 00/M00 A3037 RMK A01 T00031003  RH  096%=      5-min Rain = 0
KBI1 091442Z 01006KT 00/M00 A3037 RMK A01 T00031003  RH  095%=      5-min Rain = 0
KBI1 091443Z 01006KT 00/M00 A3037 RMK A01 T00041003  RH  095%=      5-min Rain = 0
KBI1 091444Z 01006KT 00/M00 A3037 RMK A01 T00041003  RH  095%=      5-min Rain = 0
KBI1 091445Z 01006KT 01/M00 A3037 RMK A01 T00051003  RH  095%=      5-min Rain = 0
KBI1 091446Z 01006KT 01/M00 A3037 RMK A01 T00051003  RH  094%=      5-min Rain = 0
KBI1 091447Z 01006KT 01/M00 A3037 RMK A01 T00051003  RH  094%=      5-min Rain = 0
KBI1 091448Z 01007KT 01/M00 A3037 RMK A01 T00051003  RH  094%=      5-min Rain = 0
KBI1 091449Z 01006KT 01/M00 A3037 RMK A01 T00061003  RH  094%=      5-min Rain = 0
KBI1 091450Z 01007KT 01/M00 A3037 RMK A01 T00071003  RH  094%=      5-min Rain = 0
KBI1 091451Z 01008KT 01/M00 A3037 RMK A01 T00071003  RH  093%=      5-min Rain = 0
KBI1 091452Z 01007KT 01/M00 A3037 RMK A01 T00071003  RH  093%=      5-min Rain = 0
KBI1 091453Z 01007KT 01/M00 A3037 RMK A01 T00071004  RH  093%=      5-min Rain = 0
KBI1 091454Z 01006KT 01/M00 A3037 RMK A01 T00071004  RH  092%=      5-min Rain = 0
KBI1 091455Z 00007KT 01/M00 A3037 RMK A01 T00081004  RH  092%=      5-min Rain = 0
KBI1 091456Z 00008KT 01/M00 A3037 RMK A01 T00081004  RH  092%=      5-min Rain = 0
KBI1 091457Z 01007KT 01/M00 A3037 RMK A01 T00081004  RH  091%=      5-min Rain = 0
KBI1 091458Z 02007KT 01/M01 A3038 RMK A01 T00081005  RH  091%=      5-min Rain = 0
KBI1 091459Z 01006KT 01/M00 A3038 RMK A01 T00091004  RH  091%=      5-min Rain = 0
KBI1 091500Z 01007KT 01/M00 A3038 RMK A01 T00111003  RH  091%=      5-min Rain = 0
KBI1 091501Z 01008KT 01/M00 A3038 RMK A01 T00111004  RH  090%=      5-min Rain = 0
KBI1 091502Z 01007KT 01/M01 A3038 RMK A01 T00111005  RH  090%=      5-min Rain = 0
KBI1 091503Z 01007KT 01/M00 A3038 RMK A01 T00111004  RH  090%=      5-min Rain = 0
KBI1 091504Z 01007KT 01/M00 A3038 RMK A01 T00121003  RH  090%=      5-min Rain = 0
KBI1 091505Z 01009KT 01/M00 A3038 RMK A01 T00121004  RH  089%=      5-min Rain = 0
KBI1 091506Z 01008KT 01/M01 A3038 RMK A01 T00111006  RH  088%=      5-min Rain = 0
KBI1 091507Z 01008KT 01/M01 A3038 RMK A01 T00121006  RH  088%=      5-min Rain = 0
KBI1 091508Z 01007KT 01/M01 A3038 RMK A01 T00121006  RH  088%=      5-min Rain = 0
KBI1 091509Z 01006KT 01/M01 A3038 RMK A01 T00131005  RH  088%=      5-min Rain = 0
KBI1 091510Z 01007KT 02/M00 A3038 RMK A01 T00151002  RH  089%=      5-min Rain = 0
KBI1 091511Z 01008KT 02/M00 A3038 RMK A01 T00151003  RH  088%=      5-min Rain = 0
KBI1 091512Z 01008KT 02/M00 A3038 RMK A01 T00151004  RH  087%=      5-min Rain = 0
KBI1 091513Z 01007KT 02/M00 A3038 RMK A01 T00151004  RH  087%=      5-min Rain = 0
KBI1 091514Z 01006KT 02/M00 A3038 RMK A01 T00151004  RH  087%=      5-min Rain = 0
KBI1 091515Z 01008KT 02/M00 A3038 RMK A01 T00161002  RH  088%=      5-min Rain = 0
KBI1 091516Z 01008KT 02/M00 A3038 RMK A01 T00161003  RH  087%=      5-min Rain = 0
KBI1 091517Z 01007KT 02/M01 A3038 RMK A01 T00151005  RH  086%=      5-min Rain = 0
KBI1 091518Z 01006KT 02/M00 A3038 RMK A01 T00161004  RH  087%=      5-min Rain = 0
KBI1 091519Z 01006KT 02/M00 A3038 RMK A01 T00161003  RH  087%=      5-min Rain = 0
KBI1 091520Z 01006KT 02/M00 A3038 RMK A01 T00171002  RH  087%=      5-min Rain = 0
KBI1 091521Z 01006KT 02/M00 A3038 RMK A01 T00181002  RH  087%=      5-min Rain = 0
KBI1 091522Z 00006KT 02/M00 A3038 RMK A01 T00181001  RH  087%=      5-min Rain = 0
KBI1 091523Z 02006KT 02/M00 A3038 RMK A01 T00191001  RH  087%=      5-min Rain = 0
KBI1 091524Z 01007KT 02/M00 A3038 RMK A01 T00191002  RH  086%=      5-min Rain = 0
KBI1 091525Z 01006KT 02/M00 A3038 RMK A01 T00191003  RH  086%=      5-min Rain = 0
KBI1 091526Z 02007KT 02/M00 A3038 RMK A01 T00191003  RH  085%=      5-min Rain = 0
KBI1 091527Z 01008KT 02/M01 A3038 RMK A01 T00191005  RH  084%=      5-min Rain = 0
KBI1 091528Z 01007KT 02/M01 A3038 RMK A01 T00191005  RH  084%=      5-min Rain = 0
KBI1 091529Z 02009KT 02/M01 A3038 RMK A01 T00191005  RH  084%=      5-min Rain = 0
KBI1 091530Z 01009KT 02/M01 A3038 RMK A01 T00191007  RH  083%=      5-min Rain = 0
KBI1 091531Z 02008KT 02/M01 A3038 RMK A01 T00191008  RH  082%=      5-min Rain = 0
KBI1 091532Z 01008KT 02/M01 A3038 RMK A01 T00191007  RH  083%=      5-min Rain = 0
KBI1 091533Z 02008KT 02/M01 A3038 RMK A01 T00201007  RH  083%=      5-min Rain = 0
KBI1 091534Z 02008KT 02/M01 A3038 RMK A01 T00201008  RH  082%=      5-min Rain = 0
KBI1 091535Z 01008KT 02/M01 A3038 RMK A01 T00201007  RH  082%=      5-min Rain = 0
KBI1 091536Z 01008KT 02/M01 A3038 RMK A01 T00201007  RH  082%=      5-min Rain = 0
KBI1 091537Z 01008KT 02/M01 A3039 RMK A01 T00211007  RH  082%=      5-min Rain = 0
KBI1 091538Z 01009KT 02/M01 A3039 RMK A01 T00211006  RH  082%=      5-min Rain = 0
KBI1 091539Z 01007KT 02/M01 A3039 RMK A01 T00211006  RH  082%=      5-min Rain = 0
KBI1 091540Z 02008KT 02/M01 A3039 RMK A01 T00221005  RH  082%=      5-min Rain = 0
KBI1 091541Z 02009KT 02/M01 A3039 RMK A01 T00231005  RH  082%=      5-min Rain = 0
KBI1 091542Z 02008KT 02/M01 A3039 RMK A01 T00231006  RH  081%=      5-min Rain = 0
KBI1 091543Z 01007KT 02/M01 A3039 RMK A01 T00221006  RH  081%=      5-min Rain = 0
KBI1 091544Z 01008KT 02/M00 A3039 RMK A01 T00231004  RH  082%=      5-min Rain = 0
KBI1 091545Z 01007KT 02/M01 A3039 RMK A01 T00231005  RH  082%=      5-min Rain = 0
KBI1 091546Z 01007KT 02/M00 A3039 RMK A01 T00241004  RH  082%=      5-min Rain = 0
KBI1 091547Z 01008KT 02/M01 A3039 RMK A01 T00241006  RH  081%=      5-min Rain = 0
KBI1 091548Z 01007KT 02/M01 A3039 RMK A01 T00231006  RH  081%=      5-min Rain = 0
KBI1 091549Z 01009KT 02/M01 A3039 RMK A01 T00241005  RH  081%=      5-min Rain = 0
KBI1 091550Z 01008KT 02/M01 A3039 RMK A01 T00231008  RH  080%=      5-min Rain = 0
KBI1 091551Z 01009KT 02/M01 A3039 RMK A01 T00241006  RH  080%=      5-min Rain = 0
KBI1 091552Z 01009KT 02/M01 A3039 RMK A01 T00241007  RH  080%=      5-min Rain = 0
KBI1 091553Z 36008KT 02/M01 A3039 RMK A01 T00241006  RH  081%=      5-min Rain = 0
KBI1 091554Z 01009KT 03/M00 A3039 RMK A01 T00251004  RH  081%=      5-min Rain = 0
KBI1 091555Z 01008KT 03/M00 A3039 RMK A01 T00251004  RH  081%=      5-min Rain = 0
KBI1 091556Z 01009KT 03/M00 A3039 RMK A01 T00261003  RH  081%=      5-min Rain = 0
KBI1 091557Z 01008KT 03/M00 A3039 RMK A01 T00261004  RH  080%=      5-min Rain = 0
KBI1 091558Z 01008KT 03/M01 A3039 RMK A01 T00261005  RH  080%=      5-min Rain = 0
KBI1 091559Z 00008KT 03/M01 A3039 RMK A01 T00261006  RH  080%=      5-min Rain = 0
KBI1 091600Z 00008KT 03/M01 A3039 RMK A01 T00261005  RH  080%=      5-min Rain = 0
KBI1 091601Z 00008KT 03/M00 A3039 RMK A01 T00281004  RH  080%=      5-min Rain = 0
KBI1 091602Z 00008KT 03/M00 A304 RMK A01 T00281003  RH  080%=      5-min Rain = 0
KBI1 091603Z 36008KT 03/M01 A304 RMK A01 T00281005  RH  079%=      5-min Rain = 0
KBI1 091604Z 00009KT 03/M00 A304 RMK A01 T00291003  RH  080%=      5-min Rain = 0
KBI1 091605Z 00009KT 03/M01 A304 RMK A01 T00291005  RH  078%=      5-min Rain = 0
KBI1 091606Z 01008KT 03/M01 A304 RMK A01 T00281006  RH  078%=      5-min Rain = 0
KBI1 091607Z 01009KT 03/M00 A304 RMK A01 T00291003  RH  079%=      5-min Rain = 0
KBI1 091608Z 01009KT 03/M01 A304 RMK A01 T00301005  RH  078%=      5-min Rain = 0
KBI1 091609Z 01008KT 03/M01 A304 RMK A01 T00291007  RH  077%=      5-min Rain = 0
KBI1 091610Z 02008KT 03/M01 A304 RMK A01 T00291006  RH  078%=      5-min Rain = 0
KBI1 091611Z 02007KT 03/M00 A304 RMK A01 T00301004  RH  078%=      5-min Rain = 0
KBI1 091612Z 02007KT 03/M00 A304 RMK A01 T00311003  RH  078%=      5-min Rain = 0
KBI1 091613Z 02006KT 03/M00 A304 RMK A01 T00321003  RH  078%=      5-min Rain = 0
KBI1 091614Z 03007KT 03/M00 A304 RMK A01 T00331004  RH  077%=      5-min Rain = 0
KBI1 091615Z 01006KT 03/M00 A304 RMK A01 T00331004  RH  077%=      5-min Rain = 0
KBI1 091616Z 00007KT 03/M00 A304 RMK A01 T00331003  RH  077%=      5-min Rain = 0
KBI1 091617Z 01007KT 03/M00 A304 RMK A01 T00331004  RH  077%=      5-min Rain = 0
KBI1 091618Z 00006KT 03/M00 A304 RMK A01 T00331004  RH  076%=      5-min Rain = 0
KBI1 091619Z 00006KT 03/M00 A304 RMK A01 T00341002  RH  078%=      5-min Rain = 0
KBI1 091620Z 01007KT 04/M00 A304 RMK A01 T00361001  RH  077%=      5-min Rain = 0
KBI1 091621Z 01006KT 04/M00 A304 RMK A01 T00361002  RH  076%=      5-min Rain = 0
KBI1 091622Z 02008KT 04/M00 A304 RMK A01 T00361002  RH  076%=      5-min Rain = 0
KBI1 091623Z 03007KT 04/M01 A304 RMK A01 T00361005  RH  075%=      5-min Rain = 0
KBI1 091624Z 03007KT 04/M00 A3041 RMK A01 T00361004  RH  075%=      5-min Rain = 0
KBI1 091625Z 02005KT 04/00 A3041 RMK A01 T003800-0  RH  076%=      5-min Rain = 0
KBI1 091626Z 02006KT 04/M00 A3041 RMK A01 T00401001  RH  075%=      5-min Rain = 0
KBI1 091627Z 01007KT 04/M00 A3041 RMK A01 T00391004  RH  073%=      5-min Rain = 0
KBI1 091628Z 00006KT 04/M01 A3041 RMK A01 T00371007  RH  073%=      5-min Rain = 0
KBI1 091629Z 00006KT 04/M01 A3041 RMK A01 T00361008  RH  073%=      5-min Rain = 0
KBI1 091630Z 01007KT 04/M00 A3041 RMK A01 T00371004  RH  075%=      5-min Rain = 0
KBI1 091631Z 01007KT 04/M00 A3041 RMK A01 T00381004  RH  074%=      5-min Rain = 0
KBI1 091632Z 01005KT 04/M01 A3041 RMK A01 T00391006  RH  073%=      5-min Rain = 0
KBI1 091633Z 01006KT 04/M01 A3041 RMK A01 T00381009  RH  072%=      5-min Rain = 0
KBI1 091634Z 00007KT 04/M01 A3041 RMK A01 T00381008  RH  072%=      5-min Rain = 0
KBI1 091635Z 36007KT 04/M01 A3041 RMK A01 T00381008  RH  072%=      5-min Rain = 0
KBI1 091636Z 35006KT 04/M01 A3041 RMK A01 T00381009  RH  071%=      5-min Rain = 0
KBI1 091637Z 02005KT 04/M01 A3041 RMK A01 T00391007  RH  072%=      5-min Rain = 0
KBI1 091638Z 03005KT 04/M01 A3041 RMK A01 T00411007  RH  071%=      5-min Rain = 0
KBI1 091639Z 04006KT 04/M01 A3041 RMK A01 T00421007  RH  070%=      5-min Rain = 0
KBI1 091640Z 03006KT 04/M01 A3041 RMK A01 T00421009  RH  069%=      5-min Rain = 0
KBI1 091641Z 00008KT 04/M01 A3041 RMK A01 T00431008  RH  069%=      5-min Rain = 0
KBI1 091642Z 36006KT 04/M01 A3041 RMK A01 T00421013  RH  068%=      5-min Rain = 0
KBI1 091643Z 35005KT 04/M01 A3041 RMK A01 T00411014  RH  067%=      5-min Rain = 0
KBI1 091644Z 35004KT 04/M01 A3041 RMK A01 T00411012  RH  068%=      5-min Rain = 0
KBI1 091645Z 02006KT 04/M01 A3041 RMK A01 T00421013  RH  068%=      5-min Rain = 0
KBI1 091646Z 02007KT 04/M01 A3041 RMK A01 T00421014  RH  067%=      5-min Rain = 0
KBI1 091647Z 02007KT 04/M01 A304 RMK A01 T00421014  RH  067%=      5-min Rain = 0
KBI1 091648Z 02006KT 04/M01 A304 RMK A01 T00441012  RH  067%=      5-min Rain = 0
KBI1 091649Z 03005KT 04/M01 A304 RMK A01 T00441014  RH  066%=      5-min Rain = 0
KBI1 091650Z 03006KT 04/M01 A304 RMK A01 T00431014  RH  066%=      5-min Rain = 0
KBI1 091651Z 02004KT 04/M02 A304 RMK A01 T00431015  RH  066%=      5-min Rain = 0
KBI1 091652Z 02005KT 04/M01 A304 RMK A01 T00441014  RH  066%=      5-min Rain = 0
KBI1 091653Z 02006KT 04/M02 A304 RMK A01 T00441017  RH  065%=      5-min Rain = 0
KBI1 091654Z 02005KT 05/M02 A304 RMK A01 T00451017  RH  064%=      5-min Rain = 0
KBI1 091655Z 02005KT 05/M02 A304 RMK A01 T00451017  RH  064%=      5-min Rain = 0
KBI1 091656Z 03004KT 05/M02 A304 RMK A01 T00451018  RH  064%=      5-min Rain = 0
KBI1 091657Z 02003KT 05/M02 A304 RMK A01 T00451018  RH  064%=      5-min Rain = 0
KBI1 091658Z 02006KT 05/M02 A304 RMK A01 T00461015  RH  065%=      5-min Rain = 0
KBI1 091659Z 01006KT 05/M01 A304 RMK A01 T00491012  RH  065%=      5-min Rain = 0
KBI1 091700Z 02005KT 05/M01 A304 RMK A01 T00521011  RH  064%=      5-min Rain = 0
KBI1 091701Z 02006KT 05/M02 A304 RMK A01 T00531017  RH  061%=      5-min Rain = 0
KBI1 091702Z 02008KT 05/M02 A304 RMK A01 T00531017  RH  060%=      5-min Rain = 0
KBI1 091703Z 03008KT 05/M02 A304 RMK A01 T00541019  RH  059%=      5-min Rain = 0
KBI1 091704Z 02004KT 05/M02 A304 RMK A01 T00531021  RH  059%=      5-min Rain = 0
KBI1 091705Z 02007KT 05/M02 A304 RMK A01 T00541023  RH  058%=      5-min Rain = 0
KBI1 091706Z 02007KT 05/M03 A304 RMK A01 T00531027  RH  056%=      5-min Rain = 0
KBI1 091707Z 01007KT 05/M02 A304 RMK A01 T00531024  RH  058%=      5-min Rain = 0
KBI1 091708Z 04009KT 05/M03 A304 RMK A01 T00541025  RH  057%=      5-min Rain = 0
KBI1 091709Z 03007KT 05/M03 A304 RMK A01 T00531031  RH  055%=      5-min Rain = 0
KBI1 091710Z 02007KT 05/M03 A304 RMK A01 T00521025  RH  057%=      5-min Rain = 0
KBI1 091711Z 02008KT 05/M03 A304 RMK A01 T00531025  RH  057%=      5-min Rain = 0
KBI1 091712Z 02008KT 05/M02 A304 RMK A01 T00541024  RH  057%=      5-min Rain = 0
KBI1 091713Z 02007KT 05/M02 A304 RMK A01 T00531023  RH  058%=      5-min Rain = 0
KBI1 091714Z 02006KT 05/M02 A304 RMK A01 T00541024  RH  057%=      5-min Rain = 0
KBI1 091715Z 03005KT 05/M03 A304 RMK A01 T00541025  RH  057%=      5-min Rain = 0
KBI1 091716Z 04005KT 05/M02 A304 RMK A01 T00541024  RH  057%=      5-min Rain = 0
KBI1 091717Z 04005KT 06/M02 A304 RMK A01 T00561016  RH  060%=      5-min Rain = 0
KBI1 091718Z 03007KT 06/M02 A304 RMK A01 T00571018  RH  058%=      5-min Rain = 0
KBI1 091719Z 02007KT 06/M02 A304 RMK A01 T00561020  RH  058%=      5-min Rain = 0
KBI1 091720Z 03006KT 06/M02 A304 RMK A01 T00561022  RH  057%=      5-min Rain = 0
KBI1 091721Z 02004KT 05/M03 A304 RMK A01 T00541028  RH  055%=      5-min Rain = 0
KBI1 091722Z 02005KT 05/M03 A304 RMK A01 T00541025  RH  057%=      5-min Rain = 0
KBI1 091723Z 02006KT 05/M02 A304 RMK A01 T00541024  RH  057%=      5-min Rain = 0
KBI1 091724Z 03005KT 05/M02 A304 RMK A01 T00541024  RH  057%=      5-min Rain = 0
KBI1 091725Z 02004KT 05/M02 A304 RMK A01 T00541024  RH  057%=      5-min Rain = 0
KBI1 091726Z 01004KT 06/M03 A304 RMK A01 T00551025  RH  056%=      5-min Rain = 0
KBI1 091727Z 00006KT 06/M02 A304 RMK A01 T00561020  RH  058%=      5-min Rain = 0
KBI1 091728Z 01006KT 06/M02 A304 RMK A01 T00591018  RH  058%=      5-min Rain = 0
KBI1 091729Z 35006KT 06/M02 A304 RMK A01 T00581022  RH  057%=      5-min Rain = 0
KBI1 091730Z 02006KT 06/M03 A304 RMK A01 T00581026  RH  055%=      5-min Rain = 0
KBI1 091731Z 36006KT 06/M02 A304 RMK A01 T00581022  RH  056%=      5-min Rain = 0
KBI1 091732Z 02007KT 06/M02 A304 RMK A01 T00591023  RH  056%=      5-min Rain = 0
KBI1 091733Z 01007KT 06/M02 A304 RMK A01 T00591023  RH  056%=      5-min Rain = 0
KBI1 091734Z 02006KT 06/M03 A304 RMK A01 T00591026  RH  055%=      5-min Rain = 0
KBI1 091735Z 34006KT 06/M03 A304 RMK A01 T00581027  RH  054%=      5-min Rain = 0
KBI1 091736Z 00007KT 06/M03 A304 RMK A01 T00581027  RH  054%=      5-min Rain = 0
KBI1 091737Z 00007KT 06/M03 A304 RMK A01 T00581026  RH  055%=      5-min Rain = 0
KBI1 091738Z 00007KT 06/M02 A304 RMK A01 T00601023  RH  055%=      5-min Rain = 0
KBI1 091739Z 36007KT 06/M03 A304 RMK A01 T00601027  RH  054%=      5-min Rain = 0
KBI1 091740Z 01006KT 06/M03 A304 RMK A01 T00591031  RH  052%=      5-min Rain = 0
KBI1 091741Z 03004KT 06/M03 A304 RMK A01 T00581030  RH  053%=      5-min Rain = 0
KBI1 091742Z 36006KT 06/M02 A3039 RMK A01 T00601022  RH  056%=      5-min Rain = 0
KBI1 091743Z 35006KT 07/M01 A3039 RMK A01 T00651013  RH  057%=      5-min Rain = 0
KBI1 091744Z 36007KT 07/M02 A3039 RMK A01 T00691017  RH  055%=      5-min Rain = 0
KBI1 091745Z 01008KT 07/M02 A3039 RMK A01 T00671022  RH  053%=      5-min Rain = 0
KBI1 091746Z 03007KT 07/M03 A3039 RMK A01 T00651025  RH  053%=      5-min Rain = 0
KBI1 091747Z 02006KT 06/M02 A3039 RMK A01 T00641022  RH  054%=      5-min Rain = 0
KBI1 091748Z 02007KT 06/M02 A3039 RMK A01 T00641023  RH  053%=      5-min Rain = 0
KBI1 091749Z 01007KT 06/M03 A3039 RMK A01 T00641026  RH  053%=      5-min Rain = 0
KBI1 091750Z 02006KT 06/M03 A3039 RMK A01 T00631030  RH  051%=      5-min Rain = 0
KBI1 091751Z 03008KT 06/M03 A3039 RMK A01 T00621029  RH  052%=      5-min Rain = 0
KBI1 091752Z 01011KT 06/M03 A3039 RMK A01 T00641028  RH  052%=      5-min Rain = 0
KBI1 091753Z 01008KT 06/M03 A3039 RMK A01 T00621029  RH  052%=      5-min Rain = 0
KBI1 091754Z 01009KT 06/M03 A3039 RMK A01 T00621026  RH  053%=      5-min Rain = 0
KBI1 091755Z 35007KT 06/M03 A3039 RMK A01 T00621030  RH  052%=      5-min Rain = 0
KBI1 091756Z 35008KT 06/M03 A3039 RMK A01 T00611033  RH  051%=      5-min Rain = 0
KBI1 091757Z 01009KT 06/M03 A3039 RMK A01 T00611030  RH  052%=      5-min Rain = 0
KBI1 091758Z 01007KT 06/M02 A3039 RMK A01 T00631024  RH  054%=      5-min Rain = 0
KBI1 091759Z 01007KT 06/M03 A3039 RMK A01 T00641025  RH  053%=      5-min Rain = 0
KBI1 091800Z 00008KT 07/M03 A3039 RMK A01 T00651027  RH  052%=      5-min Rain = 0
KBI1 091801Z 36008KT 06/M03 A3039 RMK A01 T00641028  RH  052%=      5-min Rain = 0
KBI1 091802Z 35008KT 07/M03 A3039 RMK A01 T00651028  RH  052%=      5-min Rain = 0
KBI1 091803Z 35008KT 07/M03 A3039 RMK A01 T00651029  RH  051%=      5-min Rain = 0
KBI1 091804Z 36007KT 07/M03 A3039 RMK A01 T00651030  RH  051%=      5-min Rain = 0
KBI1 091805Z 36006KT 07/M03 A3039 RMK A01 T00651031  RH  051%=      5-min Rain = 0
KBI1 091806Z 00005KT 06/M03 A3038 RMK A01 T00641031  RH  051%=      5-min Rain = 0
KBI1 091807Z 35008KT 07/M03 A3038 RMK A01 T00651026  RH  052%=      5-min Rain = 0
KBI1 091808Z 02007KT 07/M02 A3038 RMK A01 T00681024  RH  052%=      5-min Rain = 0
KBI1 091809Z 02008KT 07/M02 A3038 RMK A01 T00701021  RH  052%=      5-min Rain = 0
KBI1 091810Z 03005KT 07/M03 A3038 RMK A01 T00701027  RH  050%=      5-min Rain = 0
KBI1 091811Z 04005KT 07/M03 A3038 RMK A01 T00681025  RH  052%=      5-min Rain = 0
KBI1 091812Z 35007KT 07/M03 A3038 RMK A01 T00691025  RH  051%=      5-min Rain = 0
KBI1 091813Z 36007KT 07/M03 A3038 RMK A01 T00691029  RH  050%=      5-min Rain = 0
KBI1 091814Z 01007KT 07/M02 A3038 RMK A01 T00701024  RH  051%=      5-min Rain = 0
KBI1 091815Z 02005KT 07/M03 A3038 RMK A01 T00691028  RH  050%=      5-min Rain = 0
KBI1 091816Z 03005KT 07/M03 A3038 RMK A01 T00681031  RH  049%=      5-min Rain = 0
KBI1 091817Z 02004KT 07/M03 A3038 RMK A01 T00671032  RH  049%=      5-min Rain = 0
KBI1 091818Z 04002KT 07/M03 A3038 RMK A01 T00671031  RH  049%=      5-min Rain = 0
KBI1 091819Z 02007KT 07/M03 A3038 RMK A01 T00681026  RH  051%=      5-min Rain = 0
KBI1 091820Z 03007KT 07/M03 A3038 RMK A01 T00691027  RH  051%=      5-min Rain = 0
KBI1 091821Z 03006KT 07/M03 A3038 RMK A01 T00691029  RH  050%=      5-min Rain = 0
KBI1 091822Z 03007KT 07/M02 A3038 RMK A01 T00691024  RH  051%=      5-min Rain = 0
KBI1 091823Z 02008KT 07/M03 A3038 RMK A01 T00691026  RH  051%=      5-min Rain = 0
KBI1 091824Z 02007KT 07/M03 A3038 RMK A01 T00691026  RH  051%=      5-min Rain = 0
KBI1 091825Z 01006KT 07/M02 A3037 RMK A01 T00691024  RH  051%=      5-min Rain = 0
KBI1 091826Z 01006KT 07/M02 A3037 RMK A01 T00701023  RH  052%=      5-min Rain = 0
KBI1 091827Z 02005KT 07/M02 A3037 RMK A01 T00711021  RH  052%=      5-min Rain = 0
KBI1 091828Z 02004KT 07/M02 A3037 RMK A01 T00721024  RH  051%=      5-min Rain = 0
KBI1 091829Z 34008KT 07/M02 A3037 RMK A01 T00731017  RH  053%=      5-min Rain = 0
KBI1 091830Z 35005KT 07/M03 A3037 RMK A01 T00721027  RH  049%=      5-min Rain = 0
KBI1 091831Z 02007KT 07/M02 A3037 RMK A01 T00711022  RH  052%=      5-min Rain = 0
KBI1 091832Z 03008KT 07/M02 A3037 RMK A01 T00721024  RH  051%=      5-min Rain = 0
KBI1 091833Z 02006KT 07/M03 A3036 RMK A01 T00711026  RH  050%=      5-min Rain = 0
KBI1 091834Z 01006KT 07/M02 A3036 RMK A01 T00701023  RH  052%=      5-min Rain = 0
KBI1 091835Z 01005KT 07/M02 A3036 RMK A01 T00701022  RH  052%=      5-min Rain = 0
KBI1 091836Z 02008KT 07/M02 A3036 RMK A01 T00731015  RH  053%=      5-min Rain = 0
KBI1 091837Z 02006KT 08/M02 A3036 RMK A01 T00751020  RH  051%=      5-min Rain = 0
KBI1 091838Z 01008KT 08/M02 A3036 RMK A01 T00761019  RH  051%=      5-min Rain = 0
KBI1 091839Z 00006KT 07/M03 A3036 RMK A01 T00731027  RH  049%=      5-min Rain = 0
KBI1 091840Z 00006KT 07/M02 A3036 RMK A01 T00721024  RH  050%=      5-min Rain = 0
KBI1 091841Z 36004KT 07/M03 A3036 RMK A01 T00721026  RH  050%=      5-min Rain = 0
KBI1 091842Z 03006KT 07/M02 A3036 RMK A01 T00721023  RH  051%=      5-min Rain = 0
KBI1 091843Z 02006KT 07/M03 A3036 RMK A01 T00721025  RH  050%=      5-min Rain = 0
KBI1 091844Z 02007KT 07/M02 A3036 RMK A01 T00731022  RH  051%=      5-min Rain = 0
KBI1 091845Z 02007KT 07/M02 A3036 RMK A01 T00731020  RH  052%=      5-min Rain = 0
KBI1 091846Z 03007KT 07/M02 A3036 RMK A01 T00731021  RH  051%=      5-min Rain = 0
KBI1 091847Z 02006KT 07/M02 A3036 RMK A01 T00731020  RH  051%=      5-min Rain = 0
KBI1 091848Z 36007KT 07/M02 A3036 RMK A01 T00731021  RH  051%=      5-min Rain = 0
KBI1 091849Z 36009KT 08/M02 A3036 RMK A01 T00771015  RH  052%=      5-min Rain = 0
KBI1 091850Z 34009KT 08/M02 A3036 RMK A01 T00791021  RH  049%=      5-min Rain = 0
KBI1 091851Z 34008KT 08/M02 A3035 RMK A01 T00781023  RH  049%=      5-min Rain = 0
KBI1 091852Z 36009KT 08/M02 A3035 RMK A01 T00761024  RH  049%=      5-min Rain = 0
KBI1 091853Z 01007KT 08/M02 A3036 RMK A01 T00771019  RH  051%=      5-min Rain = 0
KBI1 091854Z 01007KT 08/M02 A3035 RMK A01 T00771018  RH  051%=      5-min Rain = 0
KBI1 091855Z 02007KT 08/M02 A3035 RMK A01 T00781017  RH  051%=      5-min Rain = 0
KBI1 091856Z 02005KT 08/M02 A3035 RMK A01 T00771022  RH  049%=      5-min Rain = 0
KBI1 091857Z 34007KT 08/M02 A3035 RMK A01 T00761020  RH  050%=      5-min Rain = 0
KBI1 091858Z 34007KT 08/M02 A3035 RMK A01 T00771024  RH  049%=      5-min Rain = 0
KBI1 091859Z 35007KT 08/M02 A3035 RMK A01 T00771023  RH  049%=      5-min Rain = 0
KBI1 091900Z 36009KT 08/M02 A3035 RMK A01 T00781020  RH  050%=      5-min Rain = 0
KBI1 091901Z 36008KT 08/M02 A3035 RMK A01 T00781020  RH  050%=      5-min Rain = 0
KBI1 091902Z 03006KT 08/M02 A3035 RMK A01 T00781020  RH  050%=      5-min Rain = 0
KBI1 091903Z 02007KT 08/M01 A3035 RMK A01 T00801014  RH  052%=      5-min Rain = 0
KBI1 091904Z 01009KT 08/M02 A3035 RMK A01 T00811015  RH  051%=      5-min Rain = 0
KBI1 091905Z 00009KT 08/M02 A3035 RMK A01 T00801017  RH  050%=      5-min Rain = 0
KBI1 091906Z 36008KT 08/M02 A3035 RMK A01 T00781019  RH  050%=      5-min Rain = 0
KBI1 091907Z 35008KT 08/M02 A3035 RMK A01 T00771020  RH  050%=      5-min Rain = 0
KBI1 091908Z 01006KT 08/M02 A3035 RMK A01 T00771022  RH  050%=      5-min Rain = 0
KBI1 091909Z 03005KT 08/M02 A3035 RMK A01 T00771023  RH  049%=      5-min Rain = 0
KBI1 091910Z 01005KT 08/M02 A3035 RMK A01 T00781021  RH  050%=      5-min Rain = 0
KBI1 091911Z 01008KT 08/M02 A3035 RMK A01 T00791018  RH  050%=      5-min Rain = 0
KBI1 091912Z 02008KT 08/M02 A3035 RMK A01 T00801019  RH  050%=      5-min Rain = 0
KBI1 091913Z 01007KT 08/M02 A3035 RMK A01 T00801016  RH  051%=      5-min Rain = 0
KBI1 091914Z 01007KT 08/M01 A3035 RMK A01 T00821012  RH  051%=      5-min Rain = 0
KBI1 091915Z 02007KT 08/M01 A3035 RMK A01 T00841013  RH  051%=      5-min Rain = 0
KBI1 091916Z 01007KT 08/M02 A3035 RMK A01 T00821019  RH  049%=      5-min Rain = 0
KBI1 091917Z 01007KT 08/M02 A3035 RMK A01 T00801021  RH  049%=      5-min Rain = 0
KBI1 091918Z 03006KT 08/M02 A3035 RMK A01 T00781022  RH  049%=      5-min Rain = 0
KBI1 091919Z 03006KT 08/M02 A3035 RMK A01 T00771019  RH  050%=      5-min Rain = 0
KBI1 091920Z 04004KT 08/M02 A3035 RMK A01 T00771022  RH  049%=      5-min Rain = 0
KBI1 091921Z 02004KT 08/M02 A3035 RMK A01 T00781019  RH  050%=      5-min Rain = 0
KBI1 091922Z 35007KT 08/M02 A3035 RMK A01 T00801016  RH  051%=      5-min Rain = 0
KBI1 091923Z 34006KT 08/M02 A3035 RMK A01 T00811019  RH  049%=      5-min Rain = 0
KBI1 091924Z 35006KT 08/M02 A3035 RMK A01 T00811016  RH  050%=      5-min Rain = 0
KBI1 091925Z 35008KT 08/M02 A3035 RMK A01 T00831016  RH  050%=      5-min Rain = 0
KBI1 091926Z 33005KT 08/M02 A3035 RMK A01 T00831018  RH  049%=      5-min Rain = 0
KBI1 091927Z 35007KT 08/M02 A3035 RMK A01 T00821017  RH  050%=      5-min Rain = 0
KBI1 091928Z 35005KT 08/M02 A3035 RMK A01 T00821020  RH  048%=      5-min Rain = 0
KBI1 091929Z 33003KT 08/M02 A3035 RMK A01 T00801022  RH  049%=      5-min Rain = 0
KBI1 091930Z 35003KT 08/M02 A3035 RMK A01 T00791021  RH  049%=      5-min Rain = 0
KBI1 091931Z 35004KT 08/M02 A3034 RMK A01 T00791019  RH  050%=      5-min Rain = 0
KBI1 091932Z 00007KT 08/M02 A3034 RMK A01 T00801020  RH  049%=      5-min Rain = 0
KBI1 091933Z 01008KT 08/M02 A3034 RMK A01 T00811015  RH  051%=      5-min Rain = 0
KBI1 091934Z 00007KT 08/M02 A3034 RMK A01 T00831017  RH  049%=      5-min Rain = 0
KBI1 091935Z 02008KT 08/M02 A3034 RMK A01 T00821018  RH  049%=      5-min Rain = 0
KBI1 091936Z 01008KT 08/M01 A3034 RMK A01 T00821014  RH  051%=      5-min Rain = 0
KBI1 091937Z 03006KT 08/M02 A3034 RMK A01 T00821015  RH  050%=      5-min Rain = 0
KBI1 091938Z 04007KT 08/M02 A3034 RMK A01 T00821016  RH  050%=      5-min Rain = 0
KBI1 091939Z 03006KT 08/M02 A3034 RMK A01 T00821016  RH  050%=      5-min Rain = 0
KBI1 091940Z 03005KT 08/M02 A3034 RMK A01 T00831017  RH  050%=      5-min Rain = 0
KBI1 091941Z 03005KT 08/M02 A3034 RMK A01 T00821017  RH  049%=      5-min Rain = 0
KBI1 091942Z 02004KT 08/M02 A3034 RMK A01 T00831016  RH  050%=      5-min Rain = 0
KBI1 091943Z 03006KT 08/M01 A3034 RMK A01 T00831014  RH  050%=      5-min Rain = 0
KBI1 091944Z 02005KT 09/M01 A3034 RMK A01 T00861011  RH  051%=      5-min Rain = 0
KBI1 091945Z 36008KT 09/M01 A3034 RMK A01 T00881010  RH  050%=      5-min Rain = 0
KBI1 091946Z 01009KT 09/M02 A3034 RMK A01 T00861015  RH  049%=      5-min Rain = 0
KBI1 091947Z 01008KT 09/M01 A3034 RMK A01 T00851014  RH  050%=      5-min Rain = 0
KBI1 091948Z 01008KT 08/M01 A3034 RMK A01 T00831013  RH  051%=      5-min Rain = 0
KBI1 091949Z 02006KT 08/M01 A3034 RMK A01 T00841014  RH  050%=      5-min Rain = 0
KBI1 091950Z 02006KT 08/M02 A3034 RMK A01 T00831017  RH  049%=      5-min Rain = 0
KBI1 091951Z 02007KT 08/M02 A3034 RMK A01 T00841015  RH  050%=      5-min Rain = 0
KBI1 091952Z 00006KT 09/M01 A3034 RMK A01 T00851011  RH  051%=      5-min Rain = 0
KBI1 091953Z 01005KT 09/M02 A3034 RMK A01 T00851018  RH  049%=      5-min Rain = 0
KBI1 091954Z 03005KT 08/M02 A3034 RMK A01 T00821020  RH  048%=      5-min Rain = 0
KBI1 091955Z 03004KT 08/M02 A3034 RMK A01 T00821021  RH  048%=      5-min Rain = 0
KBI1 091956Z 03006KT 08/M02 A3034 RMK A01 T00831016  RH  050%=      5-min Rain = 0
KBI1 091957Z 01006KT 08/M01 A3034 RMK A01 T00841014  RH  050%=      5-min Rain = 0
KBI1 091958Z 34007KT 09/M01 A3034 RMK A01 T00861014  RH  049%=      5-min Rain = 0
KBI1 091959Z 34008KT 09/M02 A3034 RMK A01 T00871019  RH  047%=      5-min Rain = 0
KBI1 092000Z 34010KT 09/M02 A3034 RMK A01 T00871016  RH  048%=      5-min Rain = 0
KBI1 092001Z 34007KT 09/M02 A3034 RMK A01 T00861021  RH  047%=      5-min Rain = 0
KBI1 092002Z 33007KT 09/M02 A3034 RMK A01 T00851018  RH  048%=      5-min Rain = 0
KBI1 092003Z 34007KT 09/M02 A3034 RMK A01 T00861019  RH  048%=      5-min Rain = 0
KBI1 092004Z 34006KT 09/M02 A3034 RMK A01 T00861017  RH  048%=      5-min Rain = 0
KBI1 092005Z 32004KT 09/M02 A3034 RMK A01 T00851023  RH  046%=      5-min Rain = 0
KBI1 092006Z 32006KT 09/M02 A3034 RMK A01 T00851018  RH  048%=      5-min Rain = 0
KBI1 092007Z 32004KT 09/M02 A3033 RMK A01 T00861019  RH  047%=      5-min Rain = 0
KBI1 092008Z 35005KT 09/M02 A3033 RMK A01 T00861021  RH  047%=      5-min Rain = 0
KBI1 092009Z 35008KT 09/M02 A3033 RMK A01 T00871016  RH  048%=      5-min Rain = 0
KBI1 092010Z 35008KT 09/M02 A3034 RMK A01 T00881018  RH  047%=      5-min Rain = 0
KBI1 092011Z 35008KT 09/M02 A3033 RMK A01 T00871019  RH  047%=      5-min Rain = 0
KBI1 092012Z 34005KT 08/M02 A3034 RMK A01 T00841021  RH  047%=      5-min Rain = 0
KBI1 092013Z 34006KT 08/M02 A3034 RMK A01 T00841021  RH  047%=      5-min Rain = 0
KBI1 092014Z 35004KT 08/M02 A3034 RMK A01 T00841022  RH  047%=      5-min Rain = 0
KBI1 092015Z 35004KT 08/M02 A3034 RMK A01 T00841022  RH  047%=      5-min Rain = 0
KBI1 092016Z 01003KT 08/M02 A3033 RMK A01 T00841020  RH  048%=      5-min Rain = 0
KBI1 092017Z 35005KT 09/M02 A3033 RMK A01 T00861015  RH  049%=      5-min Rain = 0
KBI1 092018Z 35008KT 09/M02 A3033 RMK A01 T00881015  RH  048%=      5-min Rain = 0
KBI1 092019Z 34007KT 09/M01 A3034 RMK A01 T00891014  RH  048%=      5-min Rain = 0
KBI1 092020Z 35009KT 09/M01 A3034 RMK A01 T00921011  RH  048%=      5-min Rain = 0
KBI1 092021Z 34008KT 09/M02 A3034 RMK A01 T00921017  RH  047%=      5-min Rain = 0
KBI1 092022Z 35007KT 09/M02 A3034 RMK A01 T00891019  RH  047%=      5-min Rain = 0
KBI1 092023Z 33008KT 09/M02 A3033 RMK A01 T00881018  RH  047%=      5-min Rain = 0
KBI1 092024Z 33007KT 09/M02 A3033 RMK A01 T00861021  RH  047%=      5-min Rain = 0
KBI1 092025Z 33007KT 09/M02 A3033 RMK A01 T00861020  RH  047%=      5-min Rain = 0
KBI1 092026Z 35007KT 09/M02 A3033 RMK A01 T00871018  RH  048%=      5-min Rain = 0
KBI1 092027Z 36008KT 09/M02 A3033 RMK A01 T00881017  RH  048%=      5-min Rain = 0
KBI1 092028Z 36008KT 09/M02 A3033 RMK A01 T00881015  RH  048%=      5-min Rain = 0
KBI1 092029Z 35006KT 09/M01 A3033 RMK A01 T00881014  RH  049%=      5-min Rain = 0
KBI1 092030Z 34007KT 09/M02 A3033 RMK A01 T00881016  RH  048%=      5-min Rain = 0
KBI1 092031Z 35006KT 09/M02 A3033 RMK A01 T00891015  RH  048%=      5-min Rain = 0
KBI1 092032Z 00003KT 09/M02 A3033 RMK A01 T00881020  RH  047%=      5-min Rain = 0
KBI1 092033Z 02006KT 09/M02 A3033 RMK A01 T00881015  RH  048%=      5-min Rain = 0
KBI1 092034Z 01008KT 09/M01 A3033 RMK A01 T00891014  RH  049%=      5-min Rain = 0
KBI1 092035Z 00007KT 09/M01 A3033 RMK A01 T00891010  RH  050%=      5-min Rain = 0
KBI1 092036Z 02007KT 09/M01 A3033 RMK A01 T00911010  RH  049%=      5-min Rain = 0
KBI1 092037Z 03006KT 09/M02 A3033 RMK A01 T00901015  RH  048%=      5-min Rain = 0
KBI1 092038Z 01006KT 09/M02 A3033 RMK A01 T00881019  RH  047%=      5-min Rain = 0
KBI1 092039Z 02006KT 09/M02 A3033 RMK A01 T00861017  RH  048%=      5-min Rain = 0
KBI1 092040Z 35009KT 09/M01 A3033 RMK A01 T00871011  RH  050%=      5-min Rain = 0
KBI1 092041Z 35010KT 09/M01 A3033 RMK A01 T00911010  RH  049%=      5-min Rain = 0
KBI1 092042Z 34008KT 09/M02 A3033 RMK A01 T00911015  RH  047%=      5-min Rain = 0
KBI1 092043Z 35005KT 09/M02 A3033 RMK A01 T00891015  RH  048%=      5-min Rain = 0
KBI1 092044Z 00005KT 09/M01 A3033 RMK A01 T00891014  RH  049%=      5-min Rain = 0
KBI1 092045Z 35005KT 09/M01 A3033 RMK A01 T00911008  RH  050%=      5-min Rain = 0
KBI1 092046Z 33005KT 09/M01 A3033 RMK A01 T00931013  RH  047%=      5-min Rain = 0
KBI1 092047Z 33007KT 09/M01 A3033 RMK A01 T00921014  RH  048%=      5-min Rain = 0
KBI1 092048Z 35008KT 09/M01 A3033 RMK A01 T00921011  RH  049%=      5-min Rain = 0
KBI1 092049Z 36008KT 09/M02 A3033 RMK A01 T00911015  RH  048%=      5-min Rain = 0
KBI1 092050Z 33008KT 09/M01 A3033 RMK A01 T00901014  RH  048%=      5-min Rain = 0
KBI1 092051Z 33006KT 09/M02 A3033 RMK A01 T00881018  RH  047%=      5-min Rain = 0
KBI1 092052Z 00008KT 09/M02 A3033 RMK A01 T00881017  RH  048%=      5-min Rain = 0
KBI1 092053Z 34008KT 09/M02 A3033 RMK A01 T00871016  RH  048%=      5-min Rain = 0
KBI1 092054Z 35007KT 09/M02 A3033 RMK A01 T00871018  RH  048%=      5-min Rain = 0
KBI1 092055Z 35008KT 09/M02 A3033 RMK A01 T00871017  RH  048%=      5-min Rain = 0
KBI1 092056Z 35006KT 09/M02 A3033 RMK A01 T00881018  RH  047%=      5-min Rain = 0
KBI1 092057Z 35007KT 09/M01 A3033 RMK A01 T00891014  RH  048%=      5-min Rain = 0
KBI1 092058Z 35010KT 09/M01 A3033 RMK A01 T00901013  RH  048%=      5-min Rain = 0
KBI1 092059Z 35008KT 09/M02 A3033 RMK A01 T00901015  RH  048%=      5-min Rain = 0
KBI1 092100Z 35008KT 09/M01 A3033 RMK A01 T00901014  RH  048%=      5-min Rain = 0
KBI1 092101Z 32007KT 09/M01 A3033 RMK A01 T00911012  RH  049%=      5-min Rain = 0
KBI1 092102Z 33009KT 09/M01 A3033 RMK A01 T00921014  RH  047%=      5-min Rain = 0
KBI1 092103Z 32007KT 09/M02 A3033 RMK A01 T00911015  RH  048%=      5-min Rain = 0
KBI1 092104Z 32007KT 09/M01 A3033 RMK A01 T00901012  RH  049%=      5-min Rain = 0
KBI1 092105Z 32008KT 09/M01 A3033 RMK A01 T00911014  RH  048%=      5-min Rain = 0
KBI1 092106Z 32009KT 09/M01 A3033 RMK A01 T00911013  RH  048%=      5-min Rain = 0
KBI1 092107Z 31010KT 09/M01 A3033 RMK A01 T00901013  RH  048%=      5-min Rain = 0
KBI1 092108Z 30008KT 09/M02 A3033 RMK A01 T00891016  RH  048%=      5-min Rain = 0
KBI1 092109Z 31008KT 09/M01 A3033 RMK A01 T00881013  RH  049%=      5-min Rain = 0
KBI1 092110Z 34007KT 09/M01 A3033 RMK A01 T00901010  RH  050%=      5-min Rain = 0
KBI1 092111Z 33007KT 09/M01 A3033 RMK A01 T00911013  RH  048%=      5-min Rain = 0
KBI1 092112Z 33008KT 09/M01 A3033 RMK A01 T00911012  RH  048%=      5-min Rain = 0
KBI1 092113Z 33010KT 09/M01 A3033 RMK A01 T00921011  RH  049%=      5-min Rain = 0
KBI1 092114Z 34009KT 09/M01 A3033 RMK A01 T00921012  RH  048%=      5-min Rain = 0
KBI1 092115Z 33008KT 09/M01 A3033 RMK A01 T00901014  RH  048%=      5-min Rain = 0
KBI1 092116Z 34007KT 09/M01 A3033 RMK A01 T00901013  RH  048%=      5-min Rain = 0
KBI1 092117Z 34005KT 09/M02 A3033 RMK A01 T00901015  RH  048%=      5-min Rain = 0
KBI1 092118Z 34006KT 09/M01 A3033 RMK A01 T00901014  RH  048%=      5-min Rain = 0
KBI1 092119Z 33006KT 09/M01 A3033 RMK A01 T00901013  RH  049%=      5-min Rain = 0
KBI1 092120Z 31008KT 09/M01 A3033 RMK A01 T00911012  RH  049%=      5-min Rain = 0
KBI1 092121Z 32006KT 09/M02 A3033 RMK A01 T00891017  RH  047%=      5-min Rain = 0
KBI1 092122Z 36006KT 09/M01 A3033 RMK A01 T00881013  RH  049%=      5-min Rain = 0
KBI1 092123Z 01008KT 09/M01 A3033 RMK A01 T00891008  RH  051%=      5-min Rain = 0
KBI1 092124Z 01007KT 09/M01 A3033 RMK A01 T00891010  RH  050%=      5-min Rain = 0
KBI1 092125Z 01008KT 09/M01 A3033 RMK A01 T00891009  RH  050%=      5-min Rain = 0
KBI1 092126Z 36009KT 09/M01 A3032 RMK A01 T00901008  RH  050%=      5-min Rain = 0
KBI1 092127Z 33010KT 09/M01 A3032 RMK A01 T00911008  RH  050%=      5-min Rain = 0
KBI1 092128Z 34009KT 09/M01 A3032 RMK A01 T00911010  RH  049%=      5-min Rain = 0
KBI1 092129Z 33009KT 09/M01 A3032 RMK A01 T00911010  RH  049%=      5-min Rain = 0
KBI1 092130Z 33010KT 09/M01 A3032 RMK A01 T00911009  RH  050%=      5-min Rain = 0
KBI1 092131Z 33010KT 09/M01 A3032 RMK A01 T00911010  RH  049%=      5-min Rain = 0
KBI1 092132Z 33007KT 09/M01 A3032 RMK A01 T00901011  RH  049%=      5-min Rain = 0
KBI1 092133Z 33008KT 09/M01 A3032 RMK A01 T00901010  RH  050%=      5-min Rain = 0
KBI1 092134Z 32009KT 09/M01 A3032 RMK A01 T00911010  RH  049%=      5-min Rain = 0
KBI1 092135Z 32009KT 09/M01 A3032 RMK A01 T00901011  RH  049%=      5-min Rain = 0
KBI1 092136Z 32008KT 09/M01 A3032 RMK A01 T00901011  RH  049%=      5-min Rain = 0
KBI1 092137Z 32007KT 09/M01 A3032 RMK A01 T00901010  RH  049%=      5-min Rain = 0
KBI1 092138Z 35007KT 09/M01 A3032 RMK A01 T00901009  RH  050%=      5-min Rain = 0
KBI1 092139Z 35005KT 09/M01 A3032 RMK A01 T00911009  RH  050%=      5-min Rain = 0
KBI1 092140Z 35007KT 09/M01 A3032 RMK A01 T00911006  RH  050%=      5-min Rain = 0
KBI1 092141Z 34009KT 09/M01 A3032 RMK A01 T00921009  RH  049%=      5-min Rain = 0
KBI1 092142Z 33008KT 09/M01 A3032 RMK A01 T00921008  RH  050%=      5-min Rain = 0
KBI1 092143Z 33009KT 09/M01 A3032 RMK A01 T00921013  RH  048%=      5-min Rain = 0
KBI1 092144Z 34010KT 09/M02 A3032 RMK A01 T00901015  RH  048%=      5-min Rain = 0
KBI1 092145Z 35007KT 09/M01 A3032 RMK A01 T00891014  RH  049%=      5-min Rain = 0
KBI1 092146Z 34009KT 09/M01 A3032 RMK A01 T00891009  RH  050%=      5-min Rain = 0
KBI1 092147Z 33007KT 09/M01 A3032 RMK A01 T00901013  RH  048%=      5-min Rain = 0
KBI1 092148Z 33007KT 09/M01 A3032 RMK A01 T00901009  RH  050%=      5-min Rain = 0
KBI1 092149Z 32009KT 09/M01 A3032 RMK A01 T00921008  RH  050%=      5-min Rain = 0
KBI1 092150Z 33009KT 09/M01 A3032 RMK A01 T00921013  RH  048%=      5-min Rain = 0
KBI1 092151Z 00007KT 09/M01 A3032 RMK A01 T00911012  RH  049%=      5-min Rain = 0
KBI1 092152Z 35009KT 09/M01 A3032 RMK A01 T00901008  RH  050%=      5-min Rain = 0
KBI1 092153Z 35010KT 09/M01 A3032 RMK A01 T00901011  RH  049%=      5-min Rain = 0
KBI1 092154Z 34009KT 09/M02 A3032 RMK A01 T00891015  RH  048%=      5-min Rain = 0
KBI1 092155Z 35006KT 09/M01 A3032 RMK A01 T00881014  RH  048%=      5-min Rain = 0
KBI1 092156Z 35006KT 09/M01 A3032 RMK A01 T00891012  RH  049%=      5-min Rain = 0
KBI1 092157Z 34008KT 09/M01 A3032 RMK A01 T00911009  RH  050%=      5-min Rain = 0
KBI1 092158Z 34011KT 09/M01 A3032 RMK A01 T00921010  RH  049%=      5-min Rain = 0
KBI1 092159Z 34008KT 09/M01 A3032 RMK A01 T00911012  RH  048%=      5-min Rain = 0
KBI1 092200Z 34009KT 09/M01 A3032 RMK A01 T00911010  RH  049%=      5-min Rain = 0
KBI1 092201Z 35009KT 09/M01 A3032 RMK A01 T00911013  RH  048%=      5-min Rain = 0
KBI1 092202Z 34009KT 09/M01 A3032 RMK A01 T00901013  RH  049%=      5-min Rain = 0
KBI1 092203Z 34008KT 09/M01 A3032 RMK A01 T00901013  RH  049%=      5-min Rain = 0
KBI1 092204Z 35007KT 09/M02 A3032 RMK A01 T00891015  RH  048%=      5-min Rain = 0
KBI1 092205Z 36008KT 09/M01 A3032 RMK A01 T00881014  RH  049%=      5-min Rain = 0
KBI1 092206Z 36009KT 09/M01 A3032 RMK A01 T00881014  RH  049%=      5-min Rain = 0
KBI1 092207Z 36009KT 09/M01 A3032 RMK A01 T00881012  RH  049%=      5-min Rain = 0
KBI1 092208Z 35007KT 09/M01 A3032 RMK A01 T00881011  RH  050%=      5-min Rain = 0
KBI1 092209Z 33009KT 09/M01 A3032 RMK A01 T00881012  RH  050%=      5-min Rain = 0
KBI1 092210Z 32008KT 09/M01 A3032 RMK A01 T00881012  RH  049%=      5-min Rain = 0
KBI1 092211Z 33009KT 09/M01 A3032 RMK A01 T00881010  RH  050%=      5-min Rain = 0
KBI1 092212Z 33008KT 09/M01 A3032 RMK A01 T00891010  RH  050%=      5-min Rain = 0
KBI1 092213Z 33009KT 09/M01 A3032 RMK A01 T00891010  RH  050%=      5-min Rain = 0
KBI1 092214Z 33009KT 09/M01 A3032 RMK A01 T00881010  RH  050%=      5-min Rain = 0
KBI1 092215Z 35008KT 09/M01 A3032 RMK A01 T00871011  RH  050%=      5-min Rain = 0
KBI1 092216Z 35007KT 09/M01 A3032 RMK A01 T00871009  RH  051%=      5-min Rain = 0
KBI1 092217Z 33007KT 09/M01 A3032 RMK A01 T00871008  RH  051%=      5-min Rain = 0
KBI1 092218Z 34008KT 09/M01 A3032 RMK A01 T00881006  RH  052%=      5-min Rain = 0
KBI1 092219Z 33007KT 09/M01 A3032 RMK A01 T00881007  RH  051%=      5-min Rain = 0
KBI1 092220Z 33007KT 09/M01 A3032 RMK A01 T00881006  RH  052%=      5-min Rain = 0
KBI1 092221Z 34009KT 09/M01 A3032 RMK A01 T00891008  RH  051%=      5-min Rain = 0
KBI1 092222Z 35007KT 09/M01 A3032 RMK A01 T00881008  RH  051%=      5-min Rain = 0
KBI1 092223Z 35007KT 09/M01 A3032 RMK A01 T00881006  RH  052%=      5-min Rain = 0
KBI1 092224Z 35006KT 09/M01 A3032 RMK A01 T00881008  RH  051%=      5-min Rain = 0
KBI1 092225Z 33007KT 09/M01 A3032 RMK A01 T00881008  RH  051%=      5-min Rain = 0
KBI1 092226Z 32007KT 09/M01 A3032 RMK A01 T00881009  RH  051%=      5-min Rain = 0
KBI1 092227Z 33009KT 09/M01 A3032 RMK A01 T00871010  RH  051%=      5-min Rain = 0
KBI1 092228Z 34010KT 09/M01 A3032 RMK A01 T00861010  RH  051%=      5-min Rain = 0
KBI1 092229Z 34006KT 09/M01 A3032 RMK A01 T00851012  RH  050%=      5-min Rain = 0
KBI1 092230Z 34007KT 09/M01 A3032 RMK A01 T00851008  RH  052%=      5-min Rain = 0
KBI1 092231Z 33009KT 09/M01 A3032 RMK A01 T00861009  RH  051%=      5-min Rain = 0
KBI1 092232Z 35009KT 09/M01 A3032 RMK A01 T00861009  RH  051%=      5-min Rain = 0
KBI1 092233Z 35010KT 09/M01 A3032 RMK A01 T00861011  RH  050%=      5-min Rain = 0
KBI1 092234Z 35010KT 09/M01 A3032 RMK A01 T00861012  RH  050%=      5-min Rain = 0
KBI1 092235Z 36009KT 09/M01 A3032 RMK A01 T00851010  RH  051%=      5-min Rain = 0
KBI1 092236Z 00007KT 09/M01 A3032 RMK A01 T00851008  RH  052%=      5-min Rain = 0
KBI1 092237Z 00008KT 09/M00 A3032 RMK A01 T00851004  RH  054%=      5-min Rain = 0
KBI1 092238Z 00008KT 09/M00 A3032 RMK A01 T00851004  RH  053%=      5-min Rain = 0
KBI1 092239Z 34007KT 09/M00 A3032 RMK A01 T00851003  RH  054%=      5-min Rain = 0
KBI1 092240Z 33010KT 09/M00 A3032 RMK A01 T00851003  RH  054%=      5-min Rain = 0
KBI1 092241Z 34010KT 09/M01 A3032 RMK A01 T00851005  RH  053%=      5-min Rain = 0
KBI1 092242Z 34009KT 08/M01 A3032 RMK A01 T00841006  RH  053%=      5-min Rain = 0
KBI1 092243Z 34009KT 08/M01 A3032 RMK A01 T00841007  RH  053%=      5-min Rain = 0
KBI1 092244Z 35006KT 08/M01 A3032 RMK A01 T00841007  RH  053%=      5-min Rain = 0
KBI1 092245Z 33006KT 08/M01 A3032 RMK A01 T00831006  RH  053%=      5-min Rain = 0
KBI1 092246Z 34008KT 08/M01 A3033 RMK A01 T00831005  RH  054%=      5-min Rain = 0
KBI1 092247Z 34009KT 08/M01 A3032 RMK A01 T00831007  RH  053%=      5-min Rain = 0
KBI1 092248Z 34008KT 08/M01 A3033 RMK A01 T00831006  RH  053%=      5-min Rain = 0
KBI1 092249Z 34008KT 08/M01 A3033 RMK A01 T00831007  RH  053%=      5-min Rain = 0
KBI1 092250Z 34007KT 08/M01 A3033 RMK A01 T00831006  RH  054%=      5-min Rain = 0
KBI1 092251Z 34008KT 08/M01 A3033 RMK A01 T00821007  RH  053%=      5-min Rain = 0
KBI1 092252Z 33007KT 08/M01 A3033 RMK A01 T00821007  RH  054%=      5-min Rain = 0
KBI1 092253Z 34008KT 08/M01 A3033 RMK A01 T00821005  RH  054%=      5-min Rain = 0
KBI1 092254Z 33010KT 08/M01 A3032 RMK A01 T00821007  RH  054%=      5-min Rain = 0
KBI1 092255Z 33008KT 08/M01 A3033 RMK A01 T00811008  RH  053%=      5-min Rain = 0
KBI1 092256Z 34006KT 08/M01 A3033 RMK A01 T00811006  RH  054%=      5-min Rain = 0
KBI1 092257Z 34007KT 08/M00 A3033 RMK A01 T00811004  RH  055%=      5-min Rain = 0
KBI1 092258Z 35008KT 08/M01 A3033 RMK A01 T00811005  RH  055%=      5-min Rain = 0
KBI1 092259Z 34008KT 08/M01 A3033 RMK A01 T00811006  RH  054%=      5-min Rain = 0
KBI1 092300Z 35007KT 08/M01 A3033 RMK A01 T00811006  RH  054%=      5-min Rain = 0
KBI1 092301Z 33006KT 08/M01 A3033 RMK A01 T00811006  RH  054%=      5-min Rain = 0
KBI1 092302Z 33008KT 08/M01 A3033 RMK A01 T00811005  RH  055%=      5-min Rain = 0
KBI1 092303Z 33008KT 08/M01 A3033 RMK A01 T00801006  RH  054%=      5-min Rain = 0
KBI1 092304Z 33008KT 08/M01 A3033 RMK A01 T00791007  RH  054%=      5-min Rain = 0
KBI1 092305Z 33008KT 08/M01 A3033 RMK A01 T00791007  RH  055%=      5-min Rain = 0
KBI1 092306Z 33007KT 08/M01 A3033 RMK A01 T00781007  RH  055%=      5-min Rain = 0
KBI1 092307Z 33007KT 08/M01 A3033 RMK A01 T00781007  RH  055%=      5-min Rain = 0
KBI1 092308Z 32008KT 08/M01 A3033 RMK A01 T00781005  RH  056%=      5-min Rain = 0
KBI1 092309Z 33006KT 08/M01 A3033 RMK A01 T00771005  RH  056%=      5-min Rain = 0
KBI1 092310Z 32007KT 08/M01 A3033 RMK A01 T00771005  RH  056%=      5-min Rain = 0
KBI1 092311Z 32007KT 08/M01 A3033 RMK A01 T00771005  RH  056%=      5-min Rain = 0
KBI1 092312Z 32009KT 08/M01 A3033 RMK A01 T00771005  RH  056%=      5-min Rain = 0
KBI1 092313Z 33007KT 08/M01 A3033 RMK A01 T00771005  RH  056%=      5-min Rain = 0
KBI1 092314Z 33007KT 08/M00 A3033 RMK A01 T00761004  RH  057%=      5-min Rain = 0
KBI1 092315Z 33008KT 08/M00 A3033 RMK A01 T00761004  RH  057%=      5-min Rain = 0
KBI1 092316Z 33007KT 08/M00 A3033 RMK A01 T00761004  RH  057%=      5-min Rain = 0
KBI1 092317Z 33007KT 08/M00 A3033 RMK A01 T00751003  RH  057%=      5-min Rain = 0
KBI1 092318Z 33007KT 08/M00 A3033 RMK A01 T00751003  RH  058%=      5-min Rain = 0
KBI1 092319Z 32006KT 08/M00 A3033 RMK A01 T00751003  RH  058%=      5-min Rain = 0
KBI1 092320Z 33005KT 07/M00 A3033 RMK A01 T00741002  RH  059%=      5-min Rain = 0
KBI1 092321Z 33007KT 07/M00 A3033 RMK A01 T00731001  RH  059%=      5-min Rain = 0
KBI1 092322Z 32006KT 07/M00 A3033 RMK A01 T00721002  RH  059%=      5-min Rain = 0
KBI1 092323Z 33006KT 07/M00 A3033 RMK A01 T00721002  RH  059%=      5-min Rain = 0
KBI1 092324Z 33006KT 07/M00 A3033 RMK A01 T00721001  RH  060%=      5-min Rain = 0
KBI1 092325Z 34007KT 07/M00 A3033 RMK A01 T00711001  RH  060%=      5-min Rain = 0
KBI1 092326Z 34005KT 07/M00 A3033 RMK A01 T00701001  RH  061%=      5-min Rain = 0
KBI1 092327Z 34005KT 07/00 A3033 RMK A01 T007000-0  RH  061%=      5-min Rain = 0
KBI1 092328Z 34005KT 07/00 A3033 RMK A01 T006900-0  RH  061%=      5-min Rain = 0
KBI1 092329Z 34005KT 07/M00 A3033 RMK A01 T00681001  RH  062%=      5-min Rain = 0
KBI1 092330Z 34005KT 07/M00 A3033 RMK A01 T00671001  RH  062%=      5-min Rain = 0
KBI1 092331Z 34005KT 07/M00 A3033 RMK A01 T00671001  RH  062%=      5-min Rain = 0
KBI1 092332Z 34005KT 07/M00 A3033 RMK A01 T00661001  RH  062%=      5-min Rain = 0
KBI1 092333Z 34005KT 07/M00 A3033 RMK A01 T00661001  RH  062%=      5-min Rain = 0
KBI1 092334Z 34005KT 07/M00 A3033 RMK A01 T00651001  RH  063%=      5-min Rain = 0
KBI1 092335Z 34005KT 07/M00 A3033 RMK A01 T00651001  RH  063%=      5-min Rain = 0
KBI1 092336Z 34005KT 07/00 A3033 RMK A01 T006500-0  RH  063%=      5-min Rain = 0
KBI1 092337Z 34005KT 07/00 A3033 RMK A01 T006500-0  RH  063%=      5-min Rain = 0
KBI1 092338Z 34005KT 06/00 A3033 RMK A01 T00640000  RH  064%=      5-min Rain = 0
KBI1 092339Z 34005KT 06/00 A3033 RMK A01 T00630000  RH  064%=      5-min Rain = 0
KBI1 092340Z 34005KT 06/00 A3034 RMK A01 T00630001  RH  065%=      5-min Rain = 0
KBI1 092341Z 34005KT 06/00 A3034 RMK A01 T00620001  RH  065%=      5-min Rain = 0
KBI1 092342Z 34005KT 06/00 A3034 RMK A01 T00610001  RH  066%=      5-min Rain = 0
KBI1 092343Z 34005KT 06/00 A3034 RMK A01 T00600002  RH  066%=      5-min Rain = 0
KBI1 092344Z 34004KT 06/00 A3034 RMK A01 T00600002  RH  066%=      5-min Rain = 0
KBI1 092345Z 34005KT 06/00 A3034 RMK A01 T00590002  RH  067%=      5-min Rain = 0
KBI1 092346Z 34004KT 06/00 A3034 RMK A01 T00590002  RH  067%=      5-min Rain = 0
KBI1 092347Z 34004KT 06/00 A3034 RMK A01 T00580002  RH  067%=      5-min Rain = 0
KBI1 092348Z 33004KT 06/00 A3034 RMK A01 T00580003  RH  068%=      5-min Rain = 0
KBI1 092349Z 34005KT 06/00 A3034 RMK A01 T00580003  RH  068%=      5-min Rain = 0
KBI1 092350Z 34005KT 06/00 A3034 RMK A01 T00570003  RH  068%=      5-min Rain = 0
KBI1 092351Z 34005KT 06/00 A3034 RMK A01 T00570004  RH  069%=      5-min Rain = 0
KBI1 092352Z 34005KT 06/00 A3034 RMK A01 T00560004  RH  069%=      5-min Rain = 0
KBI1 092353Z 34005KT 06/00 A3034 RMK A01 T00550004  RH  069%=      5-min Rain = 0
KBI1 092354Z 34005KT 06/00 A3034 RMK A01 T00550004  RH  070%=      5-min Rain = 0
KBI1 092355Z 34005KT 06/00 A3034 RMK A01 T00550004  RH  070%=      5-min Rain = 0
KBI1 092356Z 35005KT 06/00 A3034 RMK A01 T00550004  RH  070%=      5-min Rain = 0
KBI1 092357Z 35005KT 06/00 A3034 RMK A01 T00550003  RH  069%=      5-min Rain = 0
KBI1 092358Z 35005KT 06/00 A3034 RMK A01 T00550003  RH  069%=      5-min Rain = 0
KBI1 092359Z 34006KT 06/00 A3034 RMK A01 T00550002  RH  069%=      5-min Rain = 0
KBI1 100000Z 35006KT 06/00 A3034 RMK A01 T00550002  RH  069%=      5-min Rain = 0
KBI1 100001Z 35006KT 06/00 A3034 RMK A01 T00550002  RH  069%=      5-min Rain = 0
KBI1 100002Z 35006KT 05/00 A3034 RMK A01 T00540002  RH  069%=      5-min Rain = 0
KBI1 100003Z 35006KT 05/00 A3034 RMK A01 T00540002  RH  069%=      5-min Rain = 0
KBI1 100004Z 35006KT 05/00 A3034 RMK A01 T00530002  RH  070%=      5-min Rain = 0
KBI1 100005Z 36006KT 05/00 A3034 RMK A01 T00520002  RH  070%=      5-min Rain = 0
KBI1 100006Z 35006KT 05/00 A3034 RMK A01 T00520002  RH  070%=      5-min Rain = 0
KBI1 100007Z 35006KT 05/00 A3034 RMK A01 T00510002  RH  070%=      5-min Rain = 0
KBI1 100008Z 35006KT 05/00 A3034 RMK A01 T00500001  RH  070%=      5-min Rain = 0
KBI1 100009Z 35007KT 05/00 A3034 RMK A01 T00500001  RH  070%=      5-min Rain = 0
KBI1 100010Z 35007KT 05/00 A3034 RMK A01 T00500001  RH  070%=      5-min Rain = 0
KBI1 100011Z 35007KT 05/00 A3034 RMK A01 T00500000  RH  070%=      5-min Rain = 0
KBI1 100012Z 35007KT 05/00 A3034 RMK A01 T00510001  RH  070%=      5-min Rain = 0
KBI1 100013Z 35007KT 05/00 A3034 RMK A01 T00510000  RH  070%=      5-min Rain = 0
KBI1 100014Z 35007KT 05/00 A3034 RMK A01 T00520001  RH  069%=      5-min Rain = 0
KBI1 100015Z 35006KT 05/00 A3034 RMK A01 T00520000  RH  069%=      5-min Rain = 0
KBI1 100016Z 35007KT 05/00 A3034 RMK A01 T005100-0  RH  069%=      5-min Rain = 0
KBI1 100017Z 35006KT 05/00 A3034 RMK A01 T00510000  RH  070%=      5-min Rain = 0
KBI1 100018Z 35006KT 05/00 A3034 RMK A01 T00510000  RH  070%=      5-min Rain = 0
KBI1 100019Z 35006KT 05/00 A3034 RMK A01 T00510000  RH  070%=      5-min Rain = 0
KBI1 100020Z 34006KT 05/00 A3034 RMK A01 T00510000  RH  070%=      5-min Rain = 0
KBI1 100021Z 35006KT 05/00 A3034 RMK A01 T00510001  RH  070%=      5-min Rain = 0
KBI1 100022Z 34006KT 05/00 A3034 RMK A01 T00510001  RH  070%=      5-min Rain = 0
KBI1 100023Z 35006KT 05/00 A3034 RMK A01 T00510001  RH  070%=      5-min Rain = 0
KBI1 100024Z 35006KT 05/00 A3034 RMK A01 T00510001  RH  070%=      5-min Rain = 0
KBI1 100025Z 35006KT 05/00 A3035 RMK A01 T00500001  RH  070%=      5-min Rain = 0
KBI1 100026Z 35006KT 05/00 A3035 RMK A01 T00500001  RH  071%=      5-min Rain = 0
KBI1 100027Z 35006KT 05/00 A3035 RMK A01 T00500001  RH  071%=      5-min Rain = 0
KBI1 100028Z 35005KT 05/00 A3035 RMK A01 T00500001  RH  070%=      5-min Rain = 0
KBI1 100029Z 34005KT 05/00 A3035 RMK A01 T00500001  RH  070%=      5-min Rain = 0
KBI1 100030Z 34005KT 05/00 A3035 RMK A01 T00500001  RH  071%=      5-min Rain = 0
KBI1 100031Z 34005KT 05/00 A3035 RMK A01 T00490001  RH  071%=      5-min Rain = 0
KBI1 100032Z 34004KT 05/00 A3035 RMK A01 T00490001  RH  071%=      5-min Rain = 0
KBI1 100033Z 34005KT 05/00 A3035 RMK A01 T00480001  RH  072%=      5-min Rain = 0
KBI1 100034Z 34005KT 05/00 A3035 RMK A01 T00470001  RH  072%=      5-min Rain = 0
KBI1 100035Z 35005KT 05/00 A3035 RMK A01 T00470001  RH  072%=      5-min Rain = 0
KBI1 100036Z 34005KT 05/00 A3035 RMK A01 T00460001  RH  073%=      5-min Rain = 0
KBI1 100037Z 34005KT 05/00 A3035 RMK A01 T00450001  RH  073%=      5-min Rain = 0
KBI1 100038Z 34004KT 05/00 A3035 RMK A01 T00450001  RH  073%=      5-min Rain = 0
KBI1 100039Z 34004KT 04/00 A3035 RMK A01 T00440001  RH  074%=      5-min Rain = 0
KBI1 100040Z 34004KT 04/00 A3035 RMK A01 T00430001  RH  074%=      5-min Rain = 0
KBI1 100041Z 34004KT 04/00 A3035 RMK A01 T00420001  RH  074%=      5-min Rain = 0
KBI1 100042Z 34005KT 04/00 A3035 RMK A01 T00410001  RH  075%=      5-min Rain = 0
KBI1 100043Z 34005KT 04/00 A3035 RMK A01 T00410001  RH  075%=      5-min Rain = 0
KBI1 100044Z 35005KT 04/00 A3035 RMK A01 T00410001  RH  076%=      5-min Rain = 0
KBI1 100045Z 35005KT 04/00 A3035 RMK A01 T00410002  RH  076%=      5-min Rain = 0
KBI1 100046Z 35005KT 04/00 A3035 RMK A01 T00410001  RH  076%=      5-min Rain = 0
KBI1 100047Z 35005KT 04/00 A3035 RMK A01 T00410001  RH  076%=      5-min Rain = 0
KBI1 100048Z 35005KT 04/00 A3035 RMK A01 T00400001  RH  076%=      5-min Rain = 0
KBI1 100049Z 35005KT 04/00 A3035 RMK A01 T00400001  RH  076%=      5-min Rain = 0
KBI1 100050Z 35005KT 04/00 A3035 RMK A01 T00390001  RH  076%=      5-min Rain = 0
KBI1 100051Z 35004KT 04/00 A3035 RMK A01 T00390000  RH  076%=      5-min Rain = 0
KBI1 100052Z 35004KT 04/00 A3035 RMK A01 T00380000  RH  076%=      5-min Rain = 0
KBI1 100053Z 35004KT 04/00 A3035 RMK A01 T00380001  RH  076%=      5-min Rain = 0
KBI1 100054Z 35005KT 04/00 A3035 RMK A01 T00380001  RH  077%=      5-min Rain = 0
KBI1 100055Z 35005KT 04/00 A3035 RMK A01 T00380001  RH  077%=      5-min Rain = 0
KBI1 100056Z 35005KT 04/00 A3035 RMK A01 T00380001  RH  077%=      5-min Rain = 0
KBI1 100057Z 35005KT 04/00 A3035 RMK A01 T00370001  RH  077%=      5-min Rain = 0
KBI1 100058Z 35005KT 04/00 A3035 RMK A01 T00380001  RH  077%=      5-min Rain = 0
KBI1 100059Z 35005KT 04/00 A3035 RMK A01 T00370001  RH  077%=      5-min Rain = 0
KBI1 100100Z 35005KT 04/00 A3035 RMK A01 T00380001  RH  077%=      5-min Rain = 0
KBI1 100101Z 35005KT 04/00 A3035 RMK A01 T00380002  RH  077%=      5-min Rain = 0
KBI1 100102Z 35005KT 04/00 A3035 RMK A01 T00390002  RH  077%=      5-min Rain = 0
KBI1 100103Z 35005KT 04/00 A3035 RMK A01 T00390002  RH  077%=      5-min Rain = 0
KBI1 100104Z 35005KT 04/00 A3035 RMK A01 T00390002  RH  076%=      5-min Rain = 0
KBI1 100105Z 34005KT 04/00 A3035 RMK A01 T00400002  RH  076%=      5-min Rain = 0
KBI1 100106Z 34005KT 04/00 A3035 RMK A01 T00400002  RH  076%=      5-min Rain = 0
KBI1 100107Z 35005KT 04/00 A3035 RMK A01 T00390002  RH  077%=      5-min Rain = 0
KBI1 100108Z 35005KT 04/00 A3035 RMK A01 T00390002  RH  077%=      5-min Rain = 0
KBI1 100109Z 35006KT 04/00 A3035 RMK A01 T00390002  RH  077%=      5-min Rain = 0
KBI1 100110Z 35006KT 04/00 A3035 RMK A01 T00390002  RH  076%=      5-min Rain = 0
KBI1 100111Z 35005KT 04/00 A3035 RMK A01 T00390001  RH  076%=      5-min Rain = 0
KBI1 100112Z 35005KT 04/00 A3035 RMK A01 T00390001  RH  076%=      5-min Rain = 0
KBI1 100113Z 35005KT 04/00 A3035 RMK A01 T00380001  RH  076%=      5-min Rain = 0
KBI1 100114Z 35005KT 04/00 A3035 RMK A01 T00370001  RH  077%=      5-min Rain = 0
KBI1 100115Z 35005KT 04/00 A3035 RMK A01 T00360001  RH  078%=      5-min Rain = 0
KBI1 100116Z 35005KT 04/00 A3035 RMK A01 T00360001  RH  078%=      5-min Rain = 0
KBI1 100117Z 35005KT 04/00 A3035 RMK A01 T00360001  RH  078%=      5-min Rain = 0
KBI1 100118Z 35006KT 04/00 A3035 RMK A01 T00360001  RH  078%=      5-min Rain = 0
KBI1 100119Z 35006KT 04/00 A3035 RMK A01 T00360001  RH  078%=      5-min Rain = 0
KBI1 100120Z 35005KT 04/00 A3035 RMK A01 T00360001  RH  078%=      5-min Rain = 0
KBI1 100121Z 35005KT 04/00 A3035 RMK A01 T00360001  RH  078%=      5-min Rain = 0
KBI1 100122Z 36005KT 04/00 A3035 RMK A01 T00360001  RH  078%=      5-min Rain = 0
KBI1 100123Z 35005KT 04/00 A3035 RMK A01 T00360001  RH  078%=      5-min Rain = 0
KBI1 100124Z 36005KT 04/00 A3035 RMK A01 T00360001  RH  078%=      5-min Rain = 0
KBI1 100125Z 35005KT 04/00 A3036 RMK A01 T00370001  RH  078%=      5-min Rain = 0
KBI1 100126Z 35005KT 04/00 A3036 RMK A01 T00370001  RH  078%=      5-min Rain = 0
KBI1 100127Z 35005KT 04/00 A3036 RMK A01 T00370001  RH  078%=      5-min Rain = 0
KBI1 100128Z 35005KT 04/00 A3036 RMK A01 T00360001  RH  078%=      5-min Rain = 0
KBI1 100129Z 35005KT 04/00 A3036 RMK A01 T00360001  RH  078%=      5-min Rain = 0
KBI1 100130Z 35005KT 04/00 A3036 RMK A01 T00360001  RH  078%=      5-min Rain = 0
KBI1 100131Z 35005KT 04/00 A3036 RMK A01 T00350000  RH  078%=      5-min Rain = 0
KBI1 100132Z 35005KT 04/00 A3036 RMK A01 T00350001  RH  079%=      5-min Rain = 0
KBI1 100133Z 35005KT 03/00 A3036 RMK A01 T00340001  RH  079%=      5-min Rain = 0
KBI1 100134Z 35005KT 03/00 A3036 RMK A01 T00340001  RH  079%=      5-min Rain = 0
KBI1 100135Z 35005KT 03/00 A3036 RMK A01 T00340001  RH  079%=      5-min Rain = 0
KBI1 100136Z 35005KT 04/00 A3036 RMK A01 T00350001  RH  079%=      5-min Rain = 0
KBI1 100137Z 35005KT 04/00 A3036 RMK A01 T00350001  RH  078%=      5-min Rain = 0
KBI1 100138Z 35005KT 04/00 A3036 RMK A01 T00350001  RH  078%=      5-min Rain = 0
KBI1 100139Z 35005KT 04/00 A3036 RMK A01 T00350000  RH  078%=      5-min Rain = 0
KBI1 100140Z 35006KT 04/00 A3036 RMK A01 T00350001  RH  078%=      5-min Rain = 0
KBI1 100141Z 35006KT 03/00 A3036 RMK A01 T00340000  RH  078%=      5-min Rain = 0
KBI1 100142Z 35006KT 04/00 A3036 RMK A01 T00350001  RH  079%=      5-min Rain = 0
KBI1 100143Z 35006KT 04/00 A3036 RMK A01 T00350001  RH  079%=      5-min Rain = 0
KBI1 100144Z 35006KT 04/00 A3036 RMK A01 T00350001  RH  078%=      5-min Rain = 0
KBI1 100145Z 35006KT 04/00 A3036 RMK A01 T00350001  RH  078%=      5-min Rain = 0
KBI1 100146Z 35006KT 04/00 A3036 RMK A01 T00350001  RH  078%=      5-min Rain = 0
KBI1 100147Z 35006KT 04/00 A3036 RMK A01 T00350001  RH  078%=      5-min Rain = 0
KBI1 100148Z 35006KT 04/00 A3036 RMK A01 T00360001  RH  078%=      5-min Rain = 0
KBI1 100149Z 35006KT 04/00 A3036 RMK A01 T00360000  RH  078%=      5-min Rain = 0
KBI1 100150Z 35005KT 04/00 A3036 RMK A01 T00350000  RH  078%=      5-min Rain = 0
KBI1 100151Z 35005KT 04/M00 A3036 RMK A01 T00351001  RH  078%=      5-min Rain = 0
KBI1 100152Z 36005KT 03/M00 A3036 RMK A01 T00331001  RH  079%=      5-min Rain = 0
KBI1 100153Z 35005KT 03/00 A3036 RMK A01 T003200-0  RH  079%=      5-min Rain = 0
KBI1 100154Z 35005KT 03/M00 A3036 RMK A01 T00311001  RH  079%=      5-min Rain = 0
KBI1 100155Z 36005KT 03/M00 A3036 RMK A01 T00311001  RH  080%=      5-min Rain = 0
KBI1 100156Z 36005KT 03/M00 A3036 RMK A01 T00311001  RH  080%=      5-min Rain = 0
KBI1 100157Z 36005KT 03/M00 A3036 RMK A01 T00311001  RH  080%=      5-min Rain = 0
KBI1 100158Z 00005KT 03/M00 A3036 RMK A01 T00301001  RH  080%=      5-min Rain = 0
KBI1 100159Z 00005KT 03/M00 A3036 RMK A01 T00301001  RH  080%=      5-min Rain = 0
KBI1 100200Z 36005KT 03/M00 A3036 RMK A01 T00301001  RH  080%=      5-min Rain = 0
KBI1 100201Z 36005KT 03/M00 A3036 RMK A01 T00291002  RH  080%=      5-min Rain = 0
KBI1 100202Z 36005KT 03/M00 A3036 RMK A01 T00291002  RH  080%=      5-min Rain = 0
KBI1 100203Z 36006KT 03/M00 A3036 RMK A01 T00291002  RH  080%=      5-min Rain = 0
KBI1 100204Z 36005KT 03/M00 A3036 RMK A01 T00291002  RH  080%=      5-min Rain = 0
KBI1 100205Z 00006KT 03/M00 A3036 RMK A01 T00291002  RH  080%=      5-min Rain = 0
KBI1 100206Z 00005KT 03/M00 A3036 RMK A01 T00291002  RH  080%=      5-min Rain = 0
KBI1 100207Z 00005KT 03/M00 A3036 RMK A01 T00291002  RH  080%=      5-min Rain = 0
KBI1 100208Z 00005KT 03/M00 A3036 RMK A01 T00281003  RH  080%=      5-min Rain = 0
KBI1 100209Z 36005KT 03/M00 A3036 RMK A01 T00281003  RH  080%=      5-min Rain = 0
KBI1 100210Z 36005KT 03/M00 A3036 RMK A01 T00281003  RH  080%=      5-min Rain = 0
KBI1 100211Z 36005KT 03/M00 A3037 RMK A01 T00281003  RH  080%=      5-min Rain = 0
KBI1 100212Z 35005KT 03/M00 A3037 RMK A01 T00281003  RH  080%=      5-min Rain = 0
KBI1 100213Z 35005KT 03/M00 A3037 RMK A01 T00281003  RH  080%=      5-min Rain = 0
KBI1 100214Z 35005KT 03/M00 A3037 RMK A01 T00281003  RH  080%=      5-min Rain = 0
KBI1 100215Z 35005KT 03/M00 A3037 RMK A01 T00281003  RH  080%=      5-min Rain = 0
KBI1 100216Z 35005KT 03/M00 A3037 RMK A01 T00281003  RH  080%=      5-min Rain = 0
KBI1 100217Z 35005KT 03/M00 A3037 RMK A01 T00281003  RH  080%=      5-min Rain = 0
KBI1 100218Z 36005KT 03/M00 A3037 RMK A01 T00291003  RH  079%=      5-min Rain = 0
KBI1 100219Z 36005KT 03/M00 A3037 RMK A01 T00291004  RH  079%=      5-min Rain = 0
KBI1 100220Z 36005KT 03/M00 A3037 RMK A01 T00281004  RH  079%=      5-min Rain = 0
KBI1 100221Z 36005KT 03/M01 A3037 RMK A01 T00281005  RH  079%=      5-min Rain = 0
KBI1 100222Z 36005KT 03/M01 A3037 RMK A01 T00271005  RH  080%=      5-min Rain = 0
KBI1 100223Z 00005KT 03/M00 A3037 RMK A01 T00271004  RH  080%=      5-min Rain = 0
KBI1 100224Z 35005KT 03/M00 A3037 RMK A01 T00271004  RH  080%=      5-min Rain = 0
KBI1 100225Z 36005KT 03/M01 A3037 RMK A01 T00271005  RH  080%=      5-min Rain = 0
KBI1 100226Z 36005KT 03/M01 A3037 RMK A01 T00261006  RH  080%=      5-min Rain = 0
KBI1 100227Z 36005KT 03/M01 A3037 RMK A01 T00251006  RH  080%=      5-min Rain = 0
KBI1 100228Z 00005KT 03/M01 A3037 RMK A01 T00251005  RH  080%=      5-min Rain = 0
KBI1 100229Z 36005KT 02/M01 A3038 RMK A01 T00241005  RH  081%=      5-min Rain = 0
KBI1 100230Z 36005KT 03/M01 A3038 RMK A01 T00251005  RH  081%=      5-min Rain = 0
KBI1 100231Z 36005KT 03/M01 A3038 RMK A01 T00251005  RH  081%=      5-min Rain = 0
KBI1 100232Z 00005KT 02/M01 A3038 RMK A01 T00241005  RH  081%=      5-min Rain = 0
KBI1 100233Z 36005KT 03/M01 A3038 RMK A01 T00251005  RH  081%=      5-min Rain = 0
KBI1 100234Z 36005KT 03/M01 A3038 RMK A01 T00251005  RH  081%=      5-min Rain = 0
KBI1 100235Z 36005KT 03/M01 A3038 RMK A01 T00251005  RH  080%=      5-min Rain = 0
KBI1 100236Z 00004KT 03/M01 A3038 RMK A01 T00251006  RH  080%=      5-min Rain = 0
KBI1 100237Z 00004KT 03/M01 A3038 RMK A01 T00261005  RH  080%=      5-min Rain = 0
KBI1 100238Z 36004KT 03/M01 A3038 RMK A01 T00261006  RH  080%=      5-min Rain = 0
KBI1 100239Z 00005KT 03/M01 A3038 RMK A01 T00261006  RH  080%=      5-min Rain = 0
KBI1 100240Z 00004KT 03/M01 A3038 RMK A01 T00261006  RH  080%=      5-min Rain = 0
KBI1 100241Z 01005KT 03/M01 A3038 RMK A01 T00261006  RH  080%=      5-min Rain = 0
KBI1 100242Z 00004KT 03/M01 A3038 RMK A01 T00261006  RH  079%=      5-min Rain = 0
KBI1 100243Z 01004KT 03/M01 A3038 RMK A01 T00261006  RH  079%=      5-min Rain = 0
KBI1 100244Z 01004KT 03/M01 A3038 RMK A01 T00261006  RH  080%=      5-min Rain = 0
KBI1 100245Z 00005KT 03/M01 A3038 RMK A01 T00271006  RH  079%=      5-min Rain = 0
KBI1 100246Z 00004KT 03/M01 A3038 RMK A01 T00271006  RH  079%=      5-min Rain = 0
KBI1 100247Z 00004KT 03/M01 A3038 RMK A01 T00281006  RH  079%=      5-min Rain = 0
KBI1 100248Z 01004KT 03/M01 A3038 RMK A01 T00271006  RH  078%=      5-min Rain = 0
KBI1 100249Z 00004KT 03/M01 A3038 RMK A01 T00271007  RH  079%=      5-min Rain = 0
KBI1 100250Z 01004KT 03/M01 A3038 RMK A01 T00271006  RH  079%=      5-min Rain = 0
KBI1 100251Z 01004KT 03/M01 A3038 RMK A01 T00271007  RH  079%=      5-min Rain = 0
KBI1 100252Z 01004KT 03/M01 A3038 RMK A01 T00271006  RH  079%=      5-min Rain = 0
KBI1 100253Z 01005KT 03/M01 A3038 RMK A01 T00271006  RH  079%=      5-min Rain = 0
KBI1 100254Z 01005KT 03/M01 A3038 RMK A01 T00281006  RH  078%=      5-min Rain = 0
KBI1 100255Z 01005KT 03/M01 A3038 RMK A01 T00281006  RH  078%=      5-min Rain = 0
KBI1 100256Z 01005KT 03/M01 A3038 RMK A01 T00281006  RH  078%=      5-min Rain = 0
KBI1 100257Z 01005KT 03/M01 A3038 RMK A01 T00281006  RH  078%=      5-min Rain = 0
KBI1 100258Z 01005KT 03/M01 A3038 RMK A01 T00281006  RH  078%=      5-min Rain = 0
KBI1 100259Z 01005KT 03/M01 A3038 RMK A01 T00281006  RH  078%=      5-min Rain = 0
KBI1 100300Z 02005KT 03/M01 A3038 RMK A01 T00281006  RH  079%=      5-min Rain = 0
KBI1 100301Z 02005KT 03/M01 A3038 RMK A01 T00281005  RH  079%=      5-min Rain = 0
KBI1 100302Z 02004KT 03/M01 A3038 RMK A01 T00281006  RH  079%=      5-min Rain = 0
KBI1 100303Z 02004KT 03/M01 A3038 RMK A01 T00271006  RH  079%=      5-min Rain = 0
KBI1 100304Z 02004KT 03/M01 A3038 RMK A01 T00271006  RH  079%=      5-min Rain = 0
KBI1 100305Z 01003KT 03/M01 A3038 RMK A01 T00271005  RH  079%=      5-min Rain = 0
KBI1 100306Z 01003KT 03/M01 A3038 RMK A01 T00281005  RH  079%=      5-min Rain = 0
KBI1 100307Z 01003KT 03/M01 A3038 RMK A01 T00291005  RH  078%=      5-min Rain = 0
KBI1 100308Z 01003KT 03/M01 A3038 RMK A01 T00291006  RH  078%=      5-min Rain = 0
KBI1 100309Z 01003KT 03/M01 A3038 RMK A01 T00291006  RH  078%=      5-min Rain = 0
KBI1 100310Z 01003KT 03/M01 A3038 RMK A01 T00291006  RH  078%=      5-min Rain = 0
KBI1 100311Z 01003KT 03/M01 A3038 RMK A01 T00291007  RH  078%=      5-min Rain = 0
KBI1 100312Z 01003KT 03/M01 A3038 RMK A01 T00281007  RH  078%=      5-min Rain = 0
KBI1 100313Z 01003KT 03/M01 A3038 RMK A01 T00281007  RH  078%=      5-min Rain = 0
KBI1 100314Z 00003KT 03/M01 A3038 RMK A01 T00271007  RH  078%=      5-min Rain = 0
KBI1 100315Z 01003KT 03/M01 A3038 RMK A01 T00261007  RH  079%=      5-min Rain = 0
KBI1 100316Z 00003KT 03/M01 A3038 RMK A01 T00261007  RH  079%=      5-min Rain = 0
KBI1 100317Z 00003KT 03/M01 A3038 RMK A01 T00261007  RH  079%=      5-min Rain = 0
KBI1 100318Z 00003KT 03/M01 A3038 RMK A01 T00251007  RH  079%=      5-min Rain = 0
KBI1 100319Z 00003KT 03/M01 A3038 RMK A01 T00251007  RH  079%=      5-min Rain = 0
KBI1 100320Z 01003KT 03/M01 A3038 RMK A01 T00261007  RH  079%=      5-min Rain = 0
KBI1 100321Z 01003KT 03/M01 A3038 RMK A01 T00261006  RH  079%=      5-min Rain = 0
KBI1 100322Z 01003KT 03/M01 A3038 RMK A01 T00251007  RH  079%=      5-min Rain = 0
KBI1 100323Z 01003KT 03/M01 A3038 RMK A01 T00251007  RH  079%=      5-min Rain = 0
KBI1 100324Z 02003KT 03/M01 A3038 RMK A01 T00251007  RH  079%=      5-min Rain = 0
KBI1 100325Z 02003KT 02/M01 A3038 RMK A01 T00241008  RH  079%=      5-min Rain = 0
KBI1 100326Z 02003KT 02/M01 A3038 RMK A01 T00231008  RH  080%=      5-min Rain = 0
KBI1 100327Z 02003KT 02/M01 A3038 RMK A01 T00221008  RH  080%=      5-min Rain = 0
KBI1 100328Z 02004KT 02/M01 A3039 RMK A01 T00221008  RH  081%=      5-min Rain = 0
KBI1 100329Z 02004KT 02/M01 A3039 RMK A01 T00221008  RH  081%=      5-min Rain = 0
KBI1 100330Z 02004KT 02/M01 A3039 RMK A01 T00221007  RH  081%=      5-min Rain = 0
KBI1 100331Z 02004KT 02/M01 A3039 RMK A01 T00221007  RH  081%=      5-min Rain = 0
KBI1 100332Z 02003KT 02/M01 A3038 RMK A01 T00221007  RH  081%=      5-min Rain = 0
KBI1 100333Z 02003KT 02/M01 A3038 RMK A01 T00221007  RH  081%=      5-min Rain = 0
KBI1 100334Z 02003KT 02/M01 A3038 RMK A01 T00221007  RH  081%=      5-min Rain = 0
KBI1 100335Z 02003KT 02/M01 A3038 RMK A01 T00221007  RH  081%=      5-min Rain = 0
KBI1 100336Z 02004KT 02/M01 A3039 RMK A01 T00221007  RH  081%=      5-min Rain = 0
KBI1 100337Z 02004KT 02/M01 A3039 RMK A01 T00241006  RH  081%=      5-min Rain = 0
KBI1 100338Z 02005KT 02/M01 A3039 RMK A01 T00241006  RH  080%=      5-min Rain = 0
KBI1 100339Z 02005KT 02/M01 A3039 RMK A01 T00241007  RH  080%=      5-min Rain = 0
KBI1 100340Z 02005KT 03/M01 A3039 RMK A01 T00251007  RH  080%=      5-min Rain = 0
KBI1 100341Z 02004KT 02/M01 A3039 RMK A01 T00241007  RH  079%=      5-min Rain = 0
KBI1 100342Z 02004KT 03/M01 A3038 RMK A01 T00251007  RH  080%=      5-min Rain = 0
KBI1 100343Z 02004KT 02/M01 A3038 RMK A01 T00241008  RH  079%=      5-min Rain = 0
KBI1 100344Z 02004KT 02/M01 A3038 RMK A01 T00241008  RH  079%=      5-min Rain = 0
KBI1 100345Z 01004KT 02/M01 A3038 RMK A01 T00241008  RH  079%=      5-min Rain = 0
KBI1 100346Z 02004KT 03/M01 A3038 RMK A01 T00251008  RH  079%=      5-min Rain = 0
KBI1 100347Z 01003KT 02/M01 A3038 RMK A01 T00241008  RH  079%=      5-min Rain = 0
KBI1 100348Z 01004KT 02/M01 A3038 RMK A01 T00241009  RH  079%=      5-min Rain = 0
KBI1 100349Z 01003KT 02/M01 A3038 RMK A01 T00241009  RH  079%=      5-min Rain = 0
KBI1 100350Z 01003KT 03/M01 A3038 RMK A01 T00251008  RH  079%=      5-min Rain = 0
KBI1 100351Z 01003KT 03/M01 A3038 RMK A01 T00251008  RH  079%=      5-min Rain = 0
KBI1 100352Z 01003KT 02/M01 A3039 RMK A01 T00241008  RH  079%=      5-min Rain = 0
KBI1 100353Z 02003KT 02/M01 A3039 RMK A01 T00241009  RH  079%=      5-min Rain = 0
KBI1 100354Z 02004KT 02/M01 A3039 RMK A01 T00231009  RH  079%=      5-min Rain = 0
KBI1 100355Z 02004KT 02/M01 A3039 RMK A01 T00221010  RH  079%=      5-min Rain = 0
KBI1 100356Z 02003KT 02/M01 A3039 RMK A01 T00221010  RH  080%=      5-min Rain = 0
KBI1 100357Z 01003KT 02/M01 A3039 RMK A01 T00211010  RH  080%=      5-min Rain = 0
KBI1 100358Z 02003KT 02/M01 A3039 RMK A01 T00211010  RH  080%=      5-min Rain = 0
KBI1 100359Z 01003KT 02/M01 A3039 RMK A01 T00201010  RH  081%=      5-min Rain = 0
KBI1 100400Z 02003KT 02/M01 A3039 RMK A01 T00201010  RH  081%=      5-min Rain = 0
KBI1 100401Z 02003KT 02/M01 A3039 RMK A01 T00191010  RH  081%=      5-min Rain = 0
KBI1 100402Z 02003KT 02/M01 A3039 RMK A01 T00191010  RH  081%=      5-min Rain = 0
KBI1 100403Z 02003KT 02/M01 A3039 RMK A01 T00181010  RH  081%=      5-min Rain = 0
KBI1 100404Z 02002KT 02/M01 A3039 RMK A01 T00181010  RH  082%=      5-min Rain = 0
KBI1 100405Z 01002KT 02/M01 A3039 RMK A01 T00181009  RH  082%=      5-min Rain = 0
KBI1 100406Z 01002KT 02/M01 A3039 RMK A01 T00181009  RH  082%=      5-min Rain = 0
KBI1 100407Z 01002KT 02/M01 A3039 RMK A01 T00181010  RH  082%=      5-min Rain = 0
KBI1 100408Z 00002KT 02/M01 A3039 RMK A01 T00191009  RH  082%=      5-min Rain = 0
KBI1 100409Z 00002KT 02/M01 A3039 RMK A01 T00191010  RH  082%=      5-min Rain = 0
KBI1 100410Z 00002KT 02/M01 A3039 RMK A01 T00191010  RH  081%=      5-min Rain = 0
KBI1 100411Z 00002KT 02/M01 A3039 RMK A01 T00181011  RH  081%=      5-min Rain = 0
KBI1 100412Z 00001KT 02/M01 A3039 RMK A01 T00171012  RH  081%=      5-min Rain = 0
KBI1 100413Z 00001KT 02/M01 A3039 RMK A01 T00151014  RH  081%=      5-min Rain = 0
KBI1 100414Z 00001KT 01/M02 A3039 RMK A01 T00131016  RH  081%=      5-min Rain = 0
KBI1 100415Z 06000KT 01/M02 A3039 RMK A01 T00101020  RH  081%=      5-min Rain = 0
KBI1 100416Z 16001KT 01/M02 A3039 RMK A01 T00081019  RH  082%=      5-min Rain = 0
KBI1 100417Z 16002KT 01/M02 A3039 RMK A01 T00091015  RH  084%=      5-min Rain = 0
KBI1 100418Z 15001KT 01/M01 A3039 RMK A01 T00101011  RH  086%=      5-min Rain = 0
KBI1 100419Z 00000KT 01/M01 A3039 RMK A01 T00121008  RH  087%=      5-min Rain = 0
KBI1 100420Z 00000KT 01/M01 A3039 RMK A01 T00141005  RH  087%=      5-min Rain = 0
KBI1 100421Z 00000KT 02/M01 A3039 RMK A01 T00161005  RH  086%=      5-min Rain = 0
KBI1 100422Z 00000KT 02/M01 A3039 RMK A01 T00171005  RH  085%=      5-min Rain = 0
KBI1 100423Z 00000KT 02/M01 A3039 RMK A01 T00171006  RH  085%=      5-min Rain = 0
KBI1 100424Z 00000KT 02/M01 A3039 RMK A01 T00161008  RH  084%=      5-min Rain = 0
KBI1 100425Z 00000KT 02/M01 A3039 RMK A01 T00151010  RH  083%=      5-min Rain = 0
KBI1 100426Z 15000KT 02/M01 A3039 RMK A01 T00151010  RH  083%=      5-min Rain = 0
KBI1 100427Z 15000KT 01/M01 A3039 RMK A01 T00141010  RH  084%=      5-min Rain = 0
KBI1 100428Z 00000KT 01/M01 A3039 RMK A01 T00141009  RH  084%=      5-min Rain = 0
KBI1 100429Z 15001KT 01/M01 A3039 RMK A01 T00141010  RH  084%=      5-min Rain = 0
KBI1 100430Z 15001KT 01/M01 A3039 RMK A01 T00131010  RH  084%=      5-min Rain = 0
KBI1 100431Z 15001KT 01/M01 A3039 RMK A01 T00131010  RH  085%=      5-min Rain = 0
KBI1 100432Z 15001KT 01/M01 A3039 RMK A01 T00121009  RH  085%=      5-min Rain = 0
KBI1 100433Z 15001KT 01/M01 A3039 RMK A01 T00121009  RH  086%=      5-min Rain = 0
KBI1 100434Z 15001KT 01/M01 A3039 RMK A01 T00121008  RH  086%=      5-min Rain = 0
KBI1 100435Z 15001KT 01/M01 A3039 RMK A01 T00121008  RH  086%=      5-min Rain = 0
KBI1 100436Z 16001KT 01/M01 A3039 RMK A01 T00121008  RH  086%=      5-min Rain = 0
KBI1 100437Z 17002KT 01/M01 A3039 RMK A01 T00111009  RH  086%=      5-min Rain = 0
KBI1 100438Z 17002KT 01/M01 A3039 RMK A01 T00101010  RH  086%=      5-min Rain = 0
KBI1 100439Z 17002KT 01/M01 A3039 RMK A01 T00101010  RH  087%=      5-min Rain = 0
KBI1 100440Z 17002KT 01/M01 A3039 RMK A01 T00101010  RH  087%=      5-min Rain = 0
KBI1 100441Z 17002KT 01/M01 A3039 RMK A01 T00101009  RH  087%=      5-min Rain = 0
KBI1 100442Z 17002KT 01/M01 A3039 RMK A01 T00101009  RH  087%=      5-min Rain = 0
KBI1 100443Z 17002KT 01/M01 A3039 RMK A01 T00101008  RH  087%=      5-min Rain = 0
KBI1 100444Z 17002KT 01/M01 A3039 RMK A01 T00101008  RH  087%=      5-min Rain = 0
KBI1 100445Z 17001KT 01/M01 A3039 RMK A01 T00111008  RH  087%=      5-min Rain = 0
KBI1 100446Z 17001KT 01/M01 A3039 RMK A01 T00111008  RH  087%=      5-min Rain = 0
KBI1 100447Z 17001KT 01/M01 A3039 RMK A01 T00111008  RH  087%=      5-min Rain = 0
KBI1 100448Z 17001KT 01/M01 A3039 RMK A01 T00101009  RH  087%=      5-min Rain = 0
KBI1 100449Z 17000KT 01/M01 A3039 RMK A01 T00091010  RH  087%=      5-min Rain = 0
KBI1 100450Z 17001KT 01/M01 A3039 RMK A01 T00091010  RH  087%=      5-min Rain = 0
KBI1 100451Z 17001KT 01/M01 A3039 RMK A01 T00091010  RH  087%=      5-min Rain = 0
KBI1 100452Z 17001KT 01/M01 A3039 RMK A01 T00091010  RH  088%=      5-min Rain = 0
KBI1 100453Z 19002KT 01/M01 A3039 RMK A01 T00091009  RH  088%=      5-min Rain = 0
KBI1 100454Z 19002KT 01/M01 A3039 RMK A01 T00091009  RH  088%=      5-min Rain = 0
KBI1 100455Z 19003KT 01/M01 A3039 RMK A01 T00091009  RH  088%=      5-min Rain = 0
KBI1 100456Z 19003KT 01/M01 A3039 RMK A01 T00091009  RH  088%=      5-min Rain = 0
KBI1 100457Z 19002KT 01/M01 A3039 RMK A01 T00091008  RH  088%=      5-min Rain = 0
KBI1 100458Z 19002KT 01/M01 A3039 RMK A01 T00091008  RH  088%=      5-min Rain = 0
KBI1 100459Z 19002KT 01/M01 A3039 RMK A01 T00091009  RH  088%=      5-min Rain = 0
KBI1 100500Z 19002KT 01/M01 A3039 RMK A01 T00091010  RH  087%=      5-min Rain = 0
KBI1 100501Z 19002KT 01/M01 A3039 RMK A01 T00081011  RH  087%=      5-min Rain = 0
KBI1 100502Z 19001KT 01/M01 A3039 RMK A01 T00071011  RH  087%=      5-min Rain = 0
KBI1 100503Z 19001KT 01/M01 A3039 RMK A01 T00071012  RH  087%=      5-min Rain = 0
KBI1 100504Z 19001KT 01/M01 A3039 RMK A01 T00071012  RH  087%=      5-min Rain = 0
KBI1 100505Z 19001KT 01/M01 A3039 RMK A01 T00061012  RH  088%=      5-min Rain = 0
KBI1 100506Z 19001KT 01/M01 A3039 RMK A01 T00061011  RH  088%=      5-min Rain = 0
KBI1 100507Z 19001KT 01/M01 A3039 RMK A01 T00071010  RH  089%=      5-min Rain = 0
KBI1 100508Z 19001KT 01/M01 A3039 RMK A01 T00071009  RH  089%=      5-min Rain = 0
KBI1 100509Z 19002KT 01/M01 A3039 RMK A01 T00081009  RH  089%=      5-min Rain = 0
KBI1 100510Z 19001KT 01/M01 A3039 RMK A01 T00081008  RH  089%=      5-min Rain = 0
KBI1 100511Z 19002KT 01/M01 A3039 RMK A01 T00091008  RH  089%=      5-min Rain = 0
KBI1 100512Z 20002KT 01/M01 A3039 RMK A01 T00091007  RH  089%=      5-min Rain = 0
KBI1 100513Z 20002KT 01/M01 A3039 RMK A01 T00101007  RH  089%=      5-min Rain = 0
KBI1 100514Z 20002KT 01/M01 A3039 RMK A01 T00101007  RH  089%=      5-min Rain = 0
KBI1 100515Z 20002KT 01/M01 A3039 RMK A01 T00101007  RH  088%=      5-min Rain = 0
KBI1 100516Z 20001KT 01/M01 A3039 RMK A01 T00091008  RH  088%=      5-min Rain = 0
KBI1 100517Z 20001KT 01/M01 A3039 RMK A01 T00091009  RH  088%=      5-min Rain = 0
KBI1 100518Z 20001KT 01/M01 A3039 RMK A01 T00081010  RH  088%=      5-min Rain = 0
KBI1 100519Z 20001KT 01/M01 A3039 RMK A01 T00081011  RH  088%=      5-min Rain = 0
KBI1 100520Z 19001KT 01/M01 A3039 RMK A01 T00071011  RH  088%=      5-min Rain = 0
KBI1 100521Z 19001KT 01/M01 A3039 RMK A01 T00061012  RH  088%=      5-min Rain = 0
KBI1 100522Z 19001KT 01/M01 A3039 RMK A01 T00061011  RH  088%=      5-min Rain = 0
KBI1 100523Z 19001KT 01/M01 A3039 RMK A01 T00061010  RH  089%=      5-min Rain = 0
KBI1 100524Z 19001KT 01/M01 A3039 RMK A01 T00061010  RH  089%=      5-min Rain = 0
KBI1 100525Z 19001KT 01/M01 A3039 RMK A01 T00071009  RH  089%=      5-min Rain = 0
KBI1 100526Z 19002KT 01/M01 A3039 RMK A01 T00071009  RH  089%=      5-min Rain = 0
KBI1 100527Z 19002KT 01/M01 A3039 RMK A01 T00081008  RH  089%=      5-min Rain = 0
KBI1 100528Z 18002KT 01/M01 A3039 RMK A01 T00091007  RH  089%=      5-min Rain = 0
KBI1 100529Z 18002KT 01/M01 A3039 RMK A01 T00091007  RH  089%=      5-min Rain = 0
KBI1 100530Z 17002KT 01/M01 A3039 RMK A01 T00091008  RH  089%=      5-min Rain = 0
KBI1 100531Z 17001KT 01/M01 A3039 RMK A01 T00081009  RH  088%=      5-min Rain = 0
KBI1 100532Z 17001KT 01/M01 A3039 RMK A01 T00081008  RH  089%=      5-min Rain = 0
KBI1 100533Z 17001KT 01/M01 A3039 RMK A01 T00091007  RH  089%=      5-min Rain = 0
KBI1 100534Z 17001KT 01/M01 A3039 RMK A01 T00101007  RH  089%=      5-min Rain = 0
KBI1 100535Z 17001KT 01/M01 A3039 RMK A01 T00101006  RH  089%=      5-min Rain = 0
KBI1 100536Z 17000KT 01/M01 A3039 RMK A01 T00101007  RH  089%=      5-min Rain = 0
KBI1 100537Z 17000KT 01/M01 A3039 RMK A01 T00101007  RH  089%=      5-min Rain = 0
KBI1 100538Z 17000KT 01/M01 A3039 RMK A01 T00101006  RH  089%=      5-min Rain = 0
KBI1 100539Z 17000KT 01/M01 A3039 RMK A01 T00101006  RH  089%=      5-min Rain = 0
KBI1 100540Z 17001KT 01/M01 A3039 RMK A01 T00101006  RH  089%=      5-min Rain = 0
KBI1 100541Z 17000KT 01/M01 A3039 RMK A01 T00091007  RH  089%=      5-min Rain = 0
KBI1 100542Z 17000KT 01/M01 A3039 RMK A01 T00081008  RH  089%=      5-min Rain = 0
KBI1 100543Z 00000KT 01/M01 A3039 RMK A01 T00071009  RH  089%=      5-min Rain = 0
KBI1 100544Z 00000KT 01/M01 A304 RMK A01 T00071009  RH  089%=      5-min Rain = 0
KBI1 100545Z 00000KT 01/M01 A304 RMK A01 T00071008  RH  090%=      5-min Rain = 0
KBI1 100546Z 00000KT 01/M01 A304 RMK A01 T00071008  RH  090%=      5-min Rain = 0
KBI1 100547Z 00000KT 01/M01 A304 RMK A01 T00061009  RH  090%=      5-min Rain = 0
KBI1 100548Z 00000KT 01/M01 A304 RMK A01 T00051010  RH  089%=      5-min Rain = 0
KBI1 100549Z 00000KT 00/M01 A304 RMK A01 T00041012  RH  089%=      5-min Rain = 0
KBI1 100550Z 00000KT 00/M01 A304 RMK A01 T00031012  RH  089%=      5-min Rain = 0
KBI1 100551Z 00000KT 00/M01 A304 RMK A01 T00031012  RH  090%=      5-min Rain = 0
KBI1 100552Z 00000KT 00/M01 A304 RMK A01 T00031011  RH  090%=      5-min Rain = 0
KBI1 100553Z 00000KT 00/M01 A304 RMK A01 T00031012  RH  090%=      5-min Rain = 0
KBI1 100554Z 00000KT 00/M01 A304 RMK A01 T00031011  RH  090%=      5-min Rain = 0
KBI1 100555Z 00000KT 00/M01 A304 RMK A01 T00031011  RH  090%=      5-min Rain = 0
KBI1 100556Z 00000KT 00/M01 A304 RMK A01 T00031011  RH  091%=      5-min Rain = 0
KBI1 100557Z 00000KT 00/M01 A304 RMK A01 T00021011  RH  091%=      5-min Rain = 0
KBI1 100558Z 00000KT 00/M01 A304 RMK A01 T00021012  RH  091%=      5-min Rain = 0
KBI1 100559Z 17000KT 00/M01 A304 RMK A01 T00011013  RH  091%=      5-min Rain = 0

Page generated in 0.1214 seconds.